<?xml version="1.0" encoding="UTF-8" standalone="no" ?>
<gpx xmlns="http://www.topografix.com/GPX/1/1" xmlns:xsi="http://www.w3.org/2001/XMLSchema-instance" xsi:schemaLocation="http://www.topografix.com/GPX/1/1 http://www.topografix.com/GPX/1/1/gpx.xsd" version="1.1" creator="VisuGPX - https://www.visugpx.com">
  <metadata>
    <name>Sautron AutourCens_7-11km</name>
    <desc><![CDATA[gnerando idor:6690004_6690109_8373530_14186267_]]></desc>
  </metadata>
  <trk>
    <name><![CDATA[Sautron_CensEtHubonniere_11km-6690109]]></name>
    <extensions>
      <line xmlns="http://www.topografix.com/GPX/gpx_style/0/2">
        <color>0000FF</color>
        <width>4</width>
      </line>
    </extensions>
    <trkseg>
      <trkpt lat="47.2685" lon="-1.6714">
        <ele>40</ele>
        <time>2023-11-13T11:11:38Z</time>
      </trkpt>
      <trkpt lat="47.26894" lon="-1.67141">
        <ele>41</ele>
        <time>2023-11-13T11:12:37Z</time>
      </trkpt>
      <trkpt lat="47.26931" lon="-1.66912">
        <ele>43</ele>
        <time>2023-11-13T11:16:10Z</time>
      </trkpt>
      <trkpt lat="47.26905" lon="-1.66814">
        <ele>42</ele>
        <time>2023-11-13T11:17:45Z</time>
      </trkpt>
      <trkpt lat="47.26856" lon="-1.66774">
        <ele>41</ele>
        <time>2023-11-13T11:19:00Z</time>
      </trkpt>
      <trkpt lat="47.26828" lon="-1.66751">
        <ele>39</ele>
        <time>2023-11-13T11:19:43Z</time>
      </trkpt>
      <trkpt lat="47.26757" lon="-1.66601">
        <ele>42</ele>
        <time>2023-11-13T11:22:28Z</time>
      </trkpt>
      <trkpt lat="47.26745" lon="-1.666">
        <ele>42</ele>
        <time>2023-11-13T11:22:44Z</time>
      </trkpt>
      <trkpt lat="47.2672" lon="-1.66622">
        <ele>45</ele>
        <time>2023-11-13T11:23:23Z</time>
      </trkpt>
      <trkpt lat="47.26691" lon="-1.66594">
        <ele>46</ele>
        <time>2023-11-13T11:24:09Z</time>
      </trkpt>
      <trkpt lat="47.2667" lon="-1.66546">
        <ele>46</ele>
        <time>2023-11-13T11:25:01Z</time>
      </trkpt>
      <trkpt lat="47.26673" lon="-1.66533">
        <ele>45</ele>
        <time>2023-11-13T11:25:14Z</time>
      </trkpt>
      <trkpt lat="47.26602" lon="-1.66244">
        <ele>40</ele>
        <time>2023-11-13T11:29:52Z</time>
      </trkpt>
      <trkpt lat="47.26623" lon="-1.66167">
        <ele>41</ele>
        <time>2023-11-13T11:31:07Z</time>
      </trkpt>
      <trkpt lat="47.26651" lon="-1.66132">
        <ele>44</ele>
        <time>2023-11-13T11:31:56Z</time>
      </trkpt>
      <trkpt lat="47.26618" lon="-1.66063">
        <ele>43</ele>
        <time>2023-11-13T11:33:13Z</time>
      </trkpt>
      <trkpt lat="47.26539" lon="-1.66046">
        <ele>36</ele>
        <time>2023-11-13T11:34:59Z</time>
      </trkpt>
      <trkpt lat="47.26518" lon="-1.65964">
        <ele>33</ele>
        <time>2023-11-13T11:36:18Z</time>
      </trkpt>
      <trkpt lat="47.26519" lon="-1.65858">
        <ele>36</ele>
        <time>2023-11-13T11:37:54Z</time>
      </trkpt>
      <trkpt lat="47.26495" lon="-1.65798">
        <ele>40</ele>
        <time>2023-11-13T11:38:58Z</time>
      </trkpt>
      <trkpt lat="47.26513" lon="-1.65725">
        <ele>44</ele>
        <time>2023-11-13T11:40:08Z</time>
      </trkpt>
      <trkpt lat="47.26586" lon="-1.65701">
        <ele>43</ele>
        <time>2023-11-13T11:41:48Z</time>
      </trkpt>
      <trkpt lat="47.26586" lon="-1.65602">
        <ele>46</ele>
        <time>2023-11-13T11:43:17Z</time>
      </trkpt>
      <trkpt lat="47.26558" lon="-1.65524">
        <ele>49</ele>
        <time>2023-11-13T11:44:37Z</time>
      </trkpt>
      <trkpt lat="47.26596" lon="-1.65261">
        <ele>56</ele>
        <time>2023-11-13T11:48:41Z</time>
      </trkpt>
      <trkpt lat="47.26646" lon="-1.65272">
        <ele>52</ele>
        <time>2023-11-13T11:49:48Z</time>
      </trkpt>
      <trkpt lat="47.26682" lon="-1.65246">
        <ele>49</ele>
        <time>2023-11-13T11:50:42Z</time>
      </trkpt>
      <trkpt lat="47.26729" lon="-1.65278">
        <ele>42</ele>
        <time>2023-11-13T11:51:51Z</time>
      </trkpt>
      <trkpt lat="47.26751" lon="-1.65308">
        <ele>39</ele>
        <time>2023-11-13T11:52:31Z</time>
      </trkpt>
      <trkpt lat="47.26763" lon="-1.6526">
        <ele>38</ele>
        <time>2023-11-13T11:53:17Z</time>
      </trkpt>
      <trkpt lat="47.26784" lon="-1.65177">
        <ele>39</ele>
        <time>2023-11-13T11:54:37Z</time>
      </trkpt>
      <trkpt lat="47.26823" lon="-1.65133">
        <ele>35</ele>
        <time>2023-11-13T11:55:43Z</time>
      </trkpt>
      <trkpt lat="47.26857" lon="-1.6502">
        <ele>39</ele>
        <time>2023-11-13T11:57:35Z</time>
      </trkpt>
      <trkpt lat="47.26883" lon="-1.64936">
        <ele>40</ele>
        <time>2023-11-13T11:58:58Z</time>
      </trkpt>
      <trkpt lat="47.26919" lon="-1.64835">
        <ele>39</ele>
        <time>2023-11-13T12:00:42Z</time>
      </trkpt>
      <trkpt lat="47.26958" lon="-1.6482">
        <ele>37</ele>
        <time>2023-11-13T12:01:35Z</time>
      </trkpt>
      <trkpt lat="47.26994" lon="-1.64609">
        <ele>37</ele>
        <time>2023-11-13T12:04:52Z</time>
      </trkpt>
      <trkpt lat="47.26957" lon="-1.64527">
        <ele>43</ele>
        <time>2023-11-13T12:06:22Z</time>
      </trkpt>
      <trkpt lat="47.2699" lon="-1.64474">
        <ele>40</ele>
        <time>2023-11-13T12:07:27Z</time>
      </trkpt>
      <trkpt lat="47.27022" lon="-1.64388">
        <ele>40</ele>
        <time>2023-11-13T12:08:56Z</time>
      </trkpt>
      <trkpt lat="47.27016" lon="-1.64294">
        <ele>40</ele>
        <time>2023-11-13T12:10:21Z</time>
      </trkpt>
      <trkpt lat="47.26993" lon="-1.64217">
        <ele>40</ele>
        <time>2023-11-13T12:11:37Z</time>
      </trkpt>
      <trkpt lat="47.26958" lon="-1.64161">
        <ele>41</ele>
        <time>2023-11-13T12:12:46Z</time>
      </trkpt>
      <trkpt lat="47.26938" lon="-1.64088">
        <ele>42</ele>
        <time>2023-11-13T12:13:58Z</time>
      </trkpt>
      <trkpt lat="47.26949" lon="-1.64028">
        <ele>44</ele>
        <time>2023-11-13T12:14:54Z</time>
      </trkpt>
      <trkpt lat="47.26914" lon="-1.63972">
        <ele>40</ele>
        <time>2023-11-13T12:16:03Z</time>
      </trkpt>
      <trkpt lat="47.26897" lon="-1.63929">
        <ele>41</ele>
        <time>2023-11-13T12:16:48Z</time>
      </trkpt>
      <trkpt lat="47.26839" lon="-1.63912">
        <ele>40</ele>
        <time>2023-11-13T12:18:07Z</time>
      </trkpt>
      <trkpt lat="47.2685" lon="-1.63858">
        <ele>44</ele>
        <time>2023-11-13T12:18:58Z</time>
      </trkpt>
      <trkpt lat="47.26879" lon="-1.63837">
        <ele>46</ele>
        <time>2023-11-13T12:19:41Z</time>
      </trkpt>
      <trkpt lat="47.27002" lon="-1.6389">
        <ele>53</ele>
        <time>2023-11-13T12:22:32Z</time>
      </trkpt>
      <trkpt lat="47.27057" lon="-1.63896">
        <ele>54</ele>
        <time>2023-11-13T12:23:45Z</time>
      </trkpt>
      <trkpt lat="47.27146" lon="-1.64055">
        <ele>51</ele>
        <time>2023-11-13T12:26:52Z</time>
      </trkpt>
      <trkpt lat="47.27256" lon="-1.64292">
        <ele>48</ele>
        <time>2023-11-13T12:31:12Z</time>
      </trkpt>
      <trkpt lat="47.27412" lon="-1.64494">
        <ele>54</ele>
        <time>2023-11-13T12:35:49Z</time>
      </trkpt>
      <trkpt lat="47.27475" lon="-1.64489">
        <ele>57</ele>
        <time>2023-11-13T12:37:13Z</time>
      </trkpt>
      <trkpt lat="47.27553" lon="-1.64442">
        <ele>60</ele>
        <time>2023-11-13T12:39:06Z</time>
      </trkpt>
      <trkpt lat="47.27563" lon="-1.64558">
        <ele>58</ele>
        <time>2023-11-13T12:40:52Z</time>
      </trkpt>
      <trkpt lat="47.27552" lon="-1.64644">
        <ele>58</ele>
        <time>2023-11-13T12:42:11Z</time>
      </trkpt>
      <trkpt lat="47.27525" lon="-1.64841">
        <ele>62</ele>
        <time>2023-11-13T12:45:13Z</time>
      </trkpt>
      <trkpt lat="47.27531" lon="-1.65">
        <ele>61</ele>
        <time>2023-11-13T12:47:37Z</time>
      </trkpt>
      <trkpt lat="47.27554" lon="-1.65124">
        <ele>62</ele>
        <time>2023-11-13T12:49:34Z</time>
      </trkpt>
      <trkpt lat="47.27637" lon="-1.65288">
        <ele>60</ele>
        <time>2023-11-13T12:52:39Z</time>
      </trkpt>
      <trkpt lat="47.2766" lon="-1.65334">
        <ele>59</ele>
        <time>2023-11-13T12:53:30Z</time>
      </trkpt>
      <trkpt lat="47.27677" lon="-1.6532">
        <ele>59</ele>
        <time>2023-11-13T12:53:56Z</time>
      </trkpt>
      <trkpt lat="47.2769" lon="-1.65343">
        <ele>59</ele>
        <time>2023-11-13T12:54:24Z</time>
      </trkpt>
      <trkpt lat="47.27685" lon="-1.65359">
        <ele>58</ele>
        <time>2023-11-13T12:54:40Z</time>
      </trkpt>
      <trkpt lat="47.27707" lon="-1.65436">
        <ele>59</ele>
        <time>2023-11-13T12:55:55Z</time>
      </trkpt>
      <trkpt lat="47.2786" lon="-1.65463">
        <ele>60</ele>
        <time>2023-11-13T12:59:21Z</time>
      </trkpt>
      <trkpt lat="47.27905" lon="-1.65511">
        <ele>61</ele>
        <time>2023-11-13T13:00:35Z</time>
      </trkpt>
      <trkpt lat="47.27918" lon="-1.65656">
        <ele>62</ele>
        <time>2023-11-13T13:02:47Z</time>
      </trkpt>
      <trkpt lat="47.27912" lon="-1.65755">
        <ele>63</ele>
        <time>2023-11-13T13:04:17Z</time>
      </trkpt>
      <trkpt lat="47.27926" lon="-1.65984">
        <ele>65</ele>
        <time>2023-11-13T13:07:45Z</time>
      </trkpt>
      <trkpt lat="47.27924" lon="-1.66007">
        <ele>65</ele>
        <time>2023-11-13T13:08:06Z</time>
      </trkpt>
      <trkpt lat="47.27952" lon="-1.66085">
        <ele>65</ele>
        <time>2023-11-13T13:09:26Z</time>
      </trkpt>
      <trkpt lat="47.28128" lon="-1.66084">
        <ele>64</ele>
        <time>2023-11-13T13:13:21Z</time>
      </trkpt>
      <trkpt lat="47.28186" lon="-1.66382">
        <ele>63</ele>
        <time>2023-11-13T13:18:02Z</time>
      </trkpt>
      <trkpt lat="47.27989" lon="-1.66504">
        <ele>64</ele>
        <time>2023-11-13T13:22:47Z</time>
      </trkpt>
      <trkpt lat="47.28098" lon="-1.66648">
        <ele>62</ele>
        <time>2023-11-13T13:26:02Z</time>
      </trkpt>
      <trkpt lat="47.2804" lon="-1.66937">
        <ele>62</ele>
        <time>2023-11-13T13:30:35Z</time>
      </trkpt>
      <trkpt lat="47.2799" lon="-1.67176">
        <ele>62</ele>
        <time>2023-11-13T13:34:22Z</time>
      </trkpt>
      <trkpt lat="47.27923" lon="-1.67419">
        <ele>62</ele>
        <time>2023-11-13T13:38:19Z</time>
      </trkpt>
      <trkpt lat="47.2801" lon="-1.67473">
        <ele>59</ele>
        <time>2023-11-13T13:40:25Z</time>
      </trkpt>
      <trkpt lat="47.27991" lon="-1.67744">
        <ele>57</ele>
        <time>2023-11-13T13:44:32Z</time>
      </trkpt>
      <trkpt lat="47.27869" lon="-1.67773">
        <ele>59</ele>
        <time>2023-11-13T13:47:17Z</time>
      </trkpt>
      <trkpt lat="47.27827" lon="-1.67767">
        <ele>61</ele>
        <time>2023-11-13T13:48:13Z</time>
      </trkpt>
      <trkpt lat="47.27721" lon="-1.67888">
        <ele>59</ele>
        <time>2023-11-13T13:51:12Z</time>
      </trkpt>
      <trkpt lat="47.2763" lon="-1.68015">
        <ele>62</ele>
        <time>2023-11-13T13:53:59Z</time>
      </trkpt>
      <trkpt lat="47.27557" lon="-1.68014">
        <ele>63</ele>
        <time>2023-11-13T13:55:37Z</time>
      </trkpt>
      <trkpt lat="47.27552" lon="-1.68043">
        <ele>62</ele>
        <time>2023-11-13T13:56:04Z</time>
      </trkpt>
      <trkpt lat="47.27531" lon="-1.68047">
        <ele>62</ele>
        <time>2023-11-13T13:56:32Z</time>
      </trkpt>
      <trkpt lat="47.2751" lon="-1.68167">
        <ele>60</ele>
        <time>2023-11-13T13:58:24Z</time>
      </trkpt>
      <trkpt lat="47.27503" lon="-1.68338">
        <ele>57</ele>
        <time>2023-11-13T14:00:59Z</time>
      </trkpt>
      <trkpt lat="47.27474" lon="-1.68406">
        <ele>51</ele>
        <time>2023-11-13T14:02:12Z</time>
      </trkpt>
      <trkpt lat="47.2747" lon="-1.68485">
        <ele>48</ele>
        <time>2023-11-13T14:03:24Z</time>
      </trkpt>
      <trkpt lat="47.27357" lon="-1.68643">
        <ele>54</ele>
        <time>2023-11-13T14:06:51Z</time>
      </trkpt>
      <trkpt lat="47.27323" lon="-1.68694">
        <ele>56</ele>
        <time>2023-11-13T14:07:56Z</time>
      </trkpt>
      <trkpt lat="47.27255" lon="-1.6874">
        <ele>61</ele>
        <time>2023-11-13T14:09:36Z</time>
      </trkpt>
      <trkpt lat="47.27214" lon="-1.68799">
        <ele>64</ele>
        <time>2023-11-13T14:10:53Z</time>
      </trkpt>
      <trkpt lat="47.2717" lon="-1.68873">
        <ele>67</ele>
        <time>2023-11-13T14:12:22Z</time>
      </trkpt>
      <trkpt lat="47.27157" lon="-1.68867">
        <ele>67</ele>
        <time>2023-11-13T14:12:40Z</time>
      </trkpt>
      <trkpt lat="47.27119" lon="-1.68811">
        <ele>67</ele>
        <time>2023-11-13T14:13:52Z</time>
      </trkpt>
      <trkpt lat="47.27078" lon="-1.68776">
        <ele>66</ele>
        <time>2023-11-13T14:14:55Z</time>
      </trkpt>
      <trkpt lat="47.27114" lon="-1.68704">
        <ele>65</ele>
        <time>2023-11-13T14:16:16Z</time>
      </trkpt>
      <trkpt lat="47.27074" lon="-1.68621">
        <ele>64</ele>
        <time>2023-11-13T14:17:48Z</time>
      </trkpt>
      <trkpt lat="47.27099" lon="-1.68553">
        <ele>61</ele>
        <time>2023-11-13T14:18:58Z</time>
      </trkpt>
      <trkpt lat="47.27098" lon="-1.68513">
        <ele>59</ele>
        <time>2023-11-13T14:19:34Z</time>
      </trkpt>
      <trkpt lat="47.27168" lon="-1.685">
        <ele>57</ele>
        <time>2023-11-13T14:21:08Z</time>
      </trkpt>
      <trkpt lat="47.27211" lon="-1.68429">
        <ele>55</ele>
        <time>2023-11-13T14:22:35Z</time>
      </trkpt>
      <trkpt lat="47.27139" lon="-1.68277">
        <ele>47</ele>
        <time>2023-11-13T14:25:22Z</time>
      </trkpt>
      <trkpt lat="47.27068" lon="-1.68175">
        <ele>49</ele>
        <time>2023-11-13T14:27:35Z</time>
      </trkpt>
      <trkpt lat="47.27078" lon="-1.68138">
        <ele>46</ele>
        <time>2023-11-13T14:28:11Z</time>
      </trkpt>
      <trkpt lat="47.27031" lon="-1.68027">
        <ele>53</ele>
        <time>2023-11-13T14:30:09Z</time>
      </trkpt>
      <trkpt lat="47.27039" lon="-1.67914">
        <ele>52</ele>
        <time>2023-11-13T14:31:52Z</time>
      </trkpt>
      <trkpt lat="47.27103" lon="-1.67742">
        <ele>49</ele>
        <time>2023-11-13T14:34:50Z</time>
      </trkpt>
      <trkpt lat="47.27101" lon="-1.67638">
        <ele>47</ele>
        <time>2023-11-13T14:36:24Z</time>
      </trkpt>
      <trkpt lat="47.2707" lon="-1.67475">
        <ele>42</ele>
        <time>2023-11-13T14:38:57Z</time>
      </trkpt>
      <trkpt lat="47.27071" lon="-1.67353">
        <ele>39</ele>
        <time>2023-11-13T14:40:48Z</time>
      </trkpt>
      <trkpt lat="47.27116" lon="-1.67354">
        <ele>41</ele>
        <time>2023-11-13T14:41:48Z</time>
      </trkpt>
      <trkpt lat="47.27136" lon="-1.67252">
        <ele>44</ele>
        <time>2023-11-13T14:43:24Z</time>
      </trkpt>
      <trkpt lat="47.27104" lon="-1.67193">
        <ele>46</ele>
        <time>2023-11-13T14:44:32Z</time>
      </trkpt>
      <trkpt lat="47.27053" lon="-1.67182">
        <ele>44</ele>
        <time>2023-11-13T14:45:41Z</time>
      </trkpt>
      <trkpt lat="47.26987" lon="-1.67183">
        <ele>41</ele>
        <time>2023-11-13T14:47:09Z</time>
      </trkpt>
      <trkpt lat="47.26926" lon="-1.67199">
        <ele>41</ele>
        <time>2023-11-13T14:48:32Z</time>
      </trkpt>
      <trkpt lat="47.2686" lon="-1.67167">
        <ele>40</ele>
        <time>2023-11-13T14:50:05Z</time>
      </trkpt>
      <trkpt lat="47.26849" lon="-1.67132">
        <ele>40</ele>
        <time>2023-11-13T14:50:39Z</time>
      </trkpt>
    </trkseg>
  </trk>
  <trk>
    <name><![CDATA[Sautron_CensEtPaysNantais_12km-14186267]]></name>
    <extensions>
      <line xmlns="http://www.topografix.com/GPX/gpx_style/0/2">
        <color>00FF00</color>
        <width>4</width>
      </line>
    </extensions>
    <trkseg>
      <trkpt lat="47.2685" lon="-1.6714">
        <ele>40</ele>
        <time>2023-11-13T11:11:16Z</time>
      </trkpt>
      <trkpt lat="47.26894" lon="-1.67141">
        <ele>41</ele>
        <time>2023-11-13T11:12:15Z</time>
      </trkpt>
      <trkpt lat="47.26931" lon="-1.66912">
        <ele>43</ele>
        <time>2023-11-13T11:15:48Z</time>
      </trkpt>
      <trkpt lat="47.26905" lon="-1.66814">
        <ele>42</ele>
        <time>2023-11-13T11:17:23Z</time>
      </trkpt>
      <trkpt lat="47.26856" lon="-1.66774">
        <ele>41</ele>
        <time>2023-11-13T11:18:38Z</time>
      </trkpt>
      <trkpt lat="47.26828" lon="-1.66751">
        <ele>39</ele>
        <time>2023-11-13T11:19:21Z</time>
      </trkpt>
      <trkpt lat="47.26757" lon="-1.66601">
        <ele>42</ele>
        <time>2023-11-13T11:22:06Z</time>
      </trkpt>
      <trkpt lat="47.26745" lon="-1.666">
        <ele>42</ele>
        <time>2023-11-13T11:22:22Z</time>
      </trkpt>
      <trkpt lat="47.2672" lon="-1.66622">
        <ele>45</ele>
        <time>2023-11-13T11:23:01Z</time>
      </trkpt>
      <trkpt lat="47.26691" lon="-1.66594">
        <ele>46</ele>
        <time>2023-11-13T11:23:47Z</time>
      </trkpt>
      <trkpt lat="47.2667" lon="-1.66546">
        <ele>46</ele>
        <time>2023-11-13T11:24:39Z</time>
      </trkpt>
      <trkpt lat="47.26673" lon="-1.66533">
        <ele>45</ele>
        <time>2023-11-13T11:24:52Z</time>
      </trkpt>
      <trkpt lat="47.26602" lon="-1.66244">
        <ele>40</ele>
        <time>2023-11-13T11:29:30Z</time>
      </trkpt>
      <trkpt lat="47.26623" lon="-1.66167">
        <ele>41</ele>
        <time>2023-11-13T11:30:45Z</time>
      </trkpt>
      <trkpt lat="47.26651" lon="-1.66132">
        <ele>44</ele>
        <time>2023-11-13T11:31:34Z</time>
      </trkpt>
      <trkpt lat="47.26618" lon="-1.66063">
        <ele>43</ele>
        <time>2023-11-13T11:32:51Z</time>
      </trkpt>
      <trkpt lat="47.26539" lon="-1.66046">
        <ele>36</ele>
        <time>2023-11-13T11:34:37Z</time>
      </trkpt>
      <trkpt lat="47.26518" lon="-1.65964">
        <ele>33</ele>
        <time>2023-11-13T11:35:56Z</time>
      </trkpt>
      <trkpt lat="47.26601" lon="-1.65937">
        <ele>40</ele>
        <time>2023-11-13T11:37:50Z</time>
      </trkpt>
      <trkpt lat="47.26699" lon="-1.659">
        <ele>49</ele>
        <time>2023-11-13T11:40:05Z</time>
      </trkpt>
      <trkpt lat="47.26817" lon="-1.65896">
        <ele>48</ele>
        <time>2023-11-13T11:42:42Z</time>
      </trkpt>
      <trkpt lat="47.26884" lon="-1.65872">
        <ele>49</ele>
        <time>2023-11-13T11:44:14Z</time>
      </trkpt>
      <trkpt lat="47.26896" lon="-1.65794">
        <ele>46</ele>
        <time>2023-11-13T11:45:27Z</time>
      </trkpt>
      <trkpt lat="47.26875" lon="-1.65714">
        <ele>40</ele>
        <time>2023-11-13T11:46:44Z</time>
      </trkpt>
      <trkpt lat="47.26887" lon="-1.65686">
        <ele>39</ele>
        <time>2023-11-13T11:47:14Z</time>
      </trkpt>
      <trkpt lat="47.27" lon="-1.65735">
        <ele>47</ele>
        <time>2023-11-13T11:49:52Z</time>
      </trkpt>
      <trkpt lat="47.27034" lon="-1.65737">
        <ele>48</ele>
        <time>2023-11-13T11:50:37Z</time>
      </trkpt>
      <trkpt lat="47.27049" lon="-1.65695">
        <ele>48</ele>
        <time>2023-11-13T11:51:20Z</time>
      </trkpt>
      <trkpt lat="47.27041" lon="-1.65652">
        <ele>48</ele>
        <time>2023-11-13T11:52:00Z</time>
      </trkpt>
      <trkpt lat="47.26923" lon="-1.65617">
        <ele>41</ele>
        <time>2023-11-13T11:54:41Z</time>
      </trkpt>
      <trkpt lat="47.26856" lon="-1.65546">
        <ele>33</ele>
        <time>2023-11-13T11:56:31Z</time>
      </trkpt>
      <trkpt lat="47.26779" lon="-1.65544">
        <ele>36</ele>
        <time>2023-11-13T11:58:14Z</time>
      </trkpt>
      <trkpt lat="47.267" lon="-1.65631">
        <ele>41</ele>
        <time>2023-11-13T12:00:26Z</time>
      </trkpt>
      <trkpt lat="47.26586" lon="-1.65602">
        <ele>46</ele>
        <time>2023-11-13T12:03:00Z</time>
      </trkpt>
      <trkpt lat="47.26558" lon="-1.65524">
        <ele>49</ele>
        <time>2023-11-13T12:04:20Z</time>
      </trkpt>
      <trkpt lat="47.26596" lon="-1.65261">
        <ele>56</ele>
        <time>2023-11-13T12:08:23Z</time>
      </trkpt>
      <trkpt lat="47.26646" lon="-1.65272">
        <ele>52</ele>
        <time>2023-11-13T12:09:31Z</time>
      </trkpt>
      <trkpt lat="47.26682" lon="-1.65246">
        <ele>49</ele>
        <time>2023-11-13T12:10:24Z</time>
      </trkpt>
      <trkpt lat="47.26729" lon="-1.65278">
        <ele>42</ele>
        <time>2023-11-13T12:11:33Z</time>
      </trkpt>
      <trkpt lat="47.26751" lon="-1.65308">
        <ele>39</ele>
        <time>2023-11-13T12:12:13Z</time>
      </trkpt>
      <trkpt lat="47.26763" lon="-1.6526">
        <ele>38</ele>
        <time>2023-11-13T12:13:00Z</time>
      </trkpt>
      <trkpt lat="47.26784" lon="-1.65177">
        <ele>39</ele>
        <time>2023-11-13T12:14:20Z</time>
      </trkpt>
      <trkpt lat="47.26823" lon="-1.65133">
        <ele>35</ele>
        <time>2023-11-13T12:15:25Z</time>
      </trkpt>
      <trkpt lat="47.26857" lon="-1.6502">
        <ele>39</ele>
        <time>2023-11-13T12:17:17Z</time>
      </trkpt>
      <trkpt lat="47.26883" lon="-1.64936">
        <ele>40</ele>
        <time>2023-11-13T12:18:41Z</time>
      </trkpt>
      <trkpt lat="47.26919" lon="-1.64835">
        <ele>39</ele>
        <time>2023-11-13T12:20:24Z</time>
      </trkpt>
      <trkpt lat="47.26958" lon="-1.6482">
        <ele>37</ele>
        <time>2023-11-13T12:21:18Z</time>
      </trkpt>
      <trkpt lat="47.26994" lon="-1.64609">
        <ele>37</ele>
        <time>2023-11-13T12:24:35Z</time>
      </trkpt>
      <trkpt lat="47.26957" lon="-1.64527">
        <ele>43</ele>
        <time>2023-11-13T12:26:04Z</time>
      </trkpt>
      <trkpt lat="47.2699" lon="-1.64474">
        <ele>40</ele>
        <time>2023-11-13T12:27:09Z</time>
      </trkpt>
      <trkpt lat="47.27022" lon="-1.64388">
        <ele>40</ele>
        <time>2023-11-13T12:28:38Z</time>
      </trkpt>
      <trkpt lat="47.27016" lon="-1.64294">
        <ele>40</ele>
        <time>2023-11-13T12:30:04Z</time>
      </trkpt>
      <trkpt lat="47.26993" lon="-1.64217">
        <ele>40</ele>
        <time>2023-11-13T12:31:20Z</time>
      </trkpt>
      <trkpt lat="47.26958" lon="-1.64161">
        <ele>41</ele>
        <time>2023-11-13T12:32:29Z</time>
      </trkpt>
      <trkpt lat="47.26938" lon="-1.64088">
        <ele>42</ele>
        <time>2023-11-13T12:33:40Z</time>
      </trkpt>
      <trkpt lat="47.26949" lon="-1.64028">
        <ele>44</ele>
        <time>2023-11-13T12:34:36Z</time>
      </trkpt>
      <trkpt lat="47.26914" lon="-1.63972">
        <ele>40</ele>
        <time>2023-11-13T12:35:45Z</time>
      </trkpt>
      <trkpt lat="47.26897" lon="-1.63929">
        <ele>41</ele>
        <time>2023-11-13T12:36:30Z</time>
      </trkpt>
      <trkpt lat="47.26839" lon="-1.63912">
        <ele>40</ele>
        <time>2023-11-13T12:37:49Z</time>
      </trkpt>
      <trkpt lat="47.2685" lon="-1.63858">
        <ele>44</ele>
        <time>2023-11-13T12:38:40Z</time>
      </trkpt>
      <trkpt lat="47.26879" lon="-1.63837">
        <ele>46</ele>
        <time>2023-11-13T12:39:23Z</time>
      </trkpt>
      <trkpt lat="47.27002" lon="-1.6389">
        <ele>53</ele>
        <time>2023-11-13T12:42:14Z</time>
      </trkpt>
      <trkpt lat="47.27057" lon="-1.63896">
        <ele>54</ele>
        <time>2023-11-13T12:43:28Z</time>
      </trkpt>
      <trkpt lat="47.27146" lon="-1.64055">
        <ele>51</ele>
        <time>2023-11-13T12:46:35Z</time>
      </trkpt>
      <trkpt lat="47.27256" lon="-1.64292">
        <ele>48</ele>
        <time>2023-11-13T12:50:55Z</time>
      </trkpt>
      <trkpt lat="47.27412" lon="-1.64494">
        <ele>54</ele>
        <time>2023-11-13T12:55:32Z</time>
      </trkpt>
      <trkpt lat="47.27475" lon="-1.64489">
        <ele>57</ele>
        <time>2023-11-13T12:56:56Z</time>
      </trkpt>
      <trkpt lat="47.27553" lon="-1.64442">
        <ele>60</ele>
        <time>2023-11-13T12:58:48Z</time>
      </trkpt>
      <trkpt lat="47.27563" lon="-1.64558">
        <ele>58</ele>
        <time>2023-11-13T13:00:34Z</time>
      </trkpt>
      <trkpt lat="47.27552" lon="-1.64644">
        <ele>58</ele>
        <time>2023-11-13T13:01:54Z</time>
      </trkpt>
      <trkpt lat="47.27525" lon="-1.64841">
        <ele>62</ele>
        <time>2023-11-13T13:04:56Z</time>
      </trkpt>
      <trkpt lat="47.27531" lon="-1.65">
        <ele>61</ele>
        <time>2023-11-13T13:07:20Z</time>
      </trkpt>
      <trkpt lat="47.27554" lon="-1.65124">
        <ele>62</ele>
        <time>2023-11-13T13:09:16Z</time>
      </trkpt>
      <trkpt lat="47.27637" lon="-1.65288">
        <ele>60</ele>
        <time>2023-11-13T13:12:21Z</time>
      </trkpt>
      <trkpt lat="47.2766" lon="-1.65334">
        <ele>59</ele>
        <time>2023-11-13T13:13:13Z</time>
      </trkpt>
      <trkpt lat="47.27677" lon="-1.6532">
        <ele>59</ele>
        <time>2023-11-13T13:13:39Z</time>
      </trkpt>
      <trkpt lat="47.2769" lon="-1.65343">
        <ele>59</ele>
        <time>2023-11-13T13:14:06Z</time>
      </trkpt>
      <trkpt lat="47.27685" lon="-1.65359">
        <ele>58</ele>
        <time>2023-11-13T13:14:22Z</time>
      </trkpt>
      <trkpt lat="47.27707" lon="-1.65436">
        <ele>59</ele>
        <time>2023-11-13T13:15:38Z</time>
      </trkpt>
      <trkpt lat="47.2786" lon="-1.65463">
        <ele>60</ele>
        <time>2023-11-13T13:19:03Z</time>
      </trkpt>
      <trkpt lat="47.27905" lon="-1.65511">
        <ele>61</ele>
        <time>2023-11-13T13:20:18Z</time>
      </trkpt>
      <trkpt lat="47.27918" lon="-1.65656">
        <ele>62</ele>
        <time>2023-11-13T13:22:30Z</time>
      </trkpt>
      <trkpt lat="47.27912" lon="-1.65755">
        <ele>63</ele>
        <time>2023-11-13T13:24:00Z</time>
      </trkpt>
      <trkpt lat="47.27926" lon="-1.65984">
        <ele>65</ele>
        <time>2023-11-13T13:27:28Z</time>
      </trkpt>
      <trkpt lat="47.27924" lon="-1.66007">
        <ele>65</ele>
        <time>2023-11-13T13:27:49Z</time>
      </trkpt>
      <trkpt lat="47.27952" lon="-1.66085">
        <ele>65</ele>
        <time>2023-11-13T13:29:09Z</time>
      </trkpt>
      <trkpt lat="47.28128" lon="-1.66084">
        <ele>64</ele>
        <time>2023-11-13T13:33:04Z</time>
      </trkpt>
      <trkpt lat="47.28186" lon="-1.66382">
        <ele>63</ele>
        <time>2023-11-13T13:37:45Z</time>
      </trkpt>
      <trkpt lat="47.27989" lon="-1.66504">
        <ele>64</ele>
        <time>2023-11-13T13:42:30Z</time>
      </trkpt>
      <trkpt lat="47.28098" lon="-1.66648">
        <ele>62</ele>
        <time>2023-11-13T13:45:45Z</time>
      </trkpt>
      <trkpt lat="47.2804" lon="-1.66937">
        <ele>62</ele>
        <time>2023-11-13T13:50:18Z</time>
      </trkpt>
      <trkpt lat="47.2799" lon="-1.67176">
        <ele>62</ele>
        <time>2023-11-13T13:54:04Z</time>
      </trkpt>
      <trkpt lat="47.27923" lon="-1.67419">
        <ele>62</ele>
        <time>2023-11-13T13:58:02Z</time>
      </trkpt>
      <trkpt lat="47.2801" lon="-1.67473">
        <ele>59</ele>
        <time>2023-11-13T14:00:08Z</time>
      </trkpt>
      <trkpt lat="47.27991" lon="-1.67744">
        <ele>57</ele>
        <time>2023-11-13T14:04:14Z</time>
      </trkpt>
      <trkpt lat="47.27869" lon="-1.67773">
        <ele>59</ele>
        <time>2023-11-13T14:06:59Z</time>
      </trkpt>
      <trkpt lat="47.27827" lon="-1.67767">
        <ele>61</ele>
        <time>2023-11-13T14:07:56Z</time>
      </trkpt>
      <trkpt lat="47.27721" lon="-1.67888">
        <ele>59</ele>
        <time>2023-11-13T14:10:54Z</time>
      </trkpt>
      <trkpt lat="47.2763" lon="-1.68015">
        <ele>62</ele>
        <time>2023-11-13T14:13:42Z</time>
      </trkpt>
      <trkpt lat="47.27557" lon="-1.68014">
        <ele>63</ele>
        <time>2023-11-13T14:15:19Z</time>
      </trkpt>
      <trkpt lat="47.27552" lon="-1.68043">
        <ele>62</ele>
        <time>2023-11-13T14:15:46Z</time>
      </trkpt>
      <trkpt lat="47.27531" lon="-1.68047">
        <ele>62</ele>
        <time>2023-11-13T14:16:14Z</time>
      </trkpt>
      <trkpt lat="47.2751" lon="-1.68167">
        <ele>60</ele>
        <time>2023-11-13T14:18:07Z</time>
      </trkpt>
      <trkpt lat="47.27503" lon="-1.68338">
        <ele>57</ele>
        <time>2023-11-13T14:20:42Z</time>
      </trkpt>
      <trkpt lat="47.27474" lon="-1.68406">
        <ele>51</ele>
        <time>2023-11-13T14:21:55Z</time>
      </trkpt>
      <trkpt lat="47.2747" lon="-1.68485">
        <ele>48</ele>
        <time>2023-11-13T14:23:06Z</time>
      </trkpt>
      <trkpt lat="47.27357" lon="-1.68643">
        <ele>54</ele>
        <time>2023-11-13T14:26:34Z</time>
      </trkpt>
      <trkpt lat="47.27323" lon="-1.68694">
        <ele>56</ele>
        <time>2023-11-13T14:27:39Z</time>
      </trkpt>
      <trkpt lat="47.27255" lon="-1.6874">
        <ele>61</ele>
        <time>2023-11-13T14:29:19Z</time>
      </trkpt>
      <trkpt lat="47.27214" lon="-1.68799">
        <ele>64</ele>
        <time>2023-11-13T14:30:35Z</time>
      </trkpt>
      <trkpt lat="47.2717" lon="-1.68873">
        <ele>67</ele>
        <time>2023-11-13T14:32:04Z</time>
      </trkpt>
      <trkpt lat="47.27157" lon="-1.68867">
        <ele>67</ele>
        <time>2023-11-13T14:32:22Z</time>
      </trkpt>
      <trkpt lat="47.27119" lon="-1.68811">
        <ele>67</ele>
        <time>2023-11-13T14:33:34Z</time>
      </trkpt>
      <trkpt lat="47.27078" lon="-1.68776">
        <ele>66</ele>
        <time>2023-11-13T14:34:37Z</time>
      </trkpt>
      <trkpt lat="47.27114" lon="-1.68704">
        <ele>65</ele>
        <time>2023-11-13T14:35:58Z</time>
      </trkpt>
      <trkpt lat="47.27074" lon="-1.68621">
        <ele>64</ele>
        <time>2023-11-13T14:37:31Z</time>
      </trkpt>
      <trkpt lat="47.27099" lon="-1.68553">
        <ele>61</ele>
        <time>2023-11-13T14:38:41Z</time>
      </trkpt>
      <trkpt lat="47.27098" lon="-1.68513">
        <ele>59</ele>
        <time>2023-11-13T14:39:17Z</time>
      </trkpt>
      <trkpt lat="47.27168" lon="-1.685">
        <ele>57</ele>
        <time>2023-11-13T14:40:51Z</time>
      </trkpt>
      <trkpt lat="47.27211" lon="-1.68429">
        <ele>55</ele>
        <time>2023-11-13T14:42:17Z</time>
      </trkpt>
      <trkpt lat="47.27139" lon="-1.68277">
        <ele>47</ele>
        <time>2023-11-13T14:45:05Z</time>
      </trkpt>
      <trkpt lat="47.27068" lon="-1.68175">
        <ele>49</ele>
        <time>2023-11-13T14:47:17Z</time>
      </trkpt>
      <trkpt lat="47.27078" lon="-1.68138">
        <ele>46</ele>
        <time>2023-11-13T14:47:53Z</time>
      </trkpt>
      <trkpt lat="47.27031" lon="-1.68027">
        <ele>53</ele>
        <time>2023-11-13T14:49:52Z</time>
      </trkpt>
      <trkpt lat="47.27039" lon="-1.67914">
        <ele>52</ele>
        <time>2023-11-13T14:51:35Z</time>
      </trkpt>
      <trkpt lat="47.27103" lon="-1.67742">
        <ele>49</ele>
        <time>2023-11-13T14:54:32Z</time>
      </trkpt>
      <trkpt lat="47.27101" lon="-1.67638">
        <ele>47</ele>
        <time>2023-11-13T14:56:07Z</time>
      </trkpt>
      <trkpt lat="47.2707" lon="-1.67475">
        <ele>42</ele>
        <time>2023-11-13T14:58:40Z</time>
      </trkpt>
      <trkpt lat="47.27071" lon="-1.67353">
        <ele>39</ele>
        <time>2023-11-13T15:00:30Z</time>
      </trkpt>
      <trkpt lat="47.27116" lon="-1.67354">
        <ele>41</ele>
        <time>2023-11-13T15:01:30Z</time>
      </trkpt>
      <trkpt lat="47.27136" lon="-1.67252">
        <ele>44</ele>
        <time>2023-11-13T15:03:06Z</time>
      </trkpt>
      <trkpt lat="47.27104" lon="-1.67193">
        <ele>46</ele>
        <time>2023-11-13T15:04:15Z</time>
      </trkpt>
      <trkpt lat="47.27053" lon="-1.67182">
        <ele>44</ele>
        <time>2023-11-13T15:05:24Z</time>
      </trkpt>
      <trkpt lat="47.26987" lon="-1.67183">
        <ele>41</ele>
        <time>2023-11-13T15:06:52Z</time>
      </trkpt>
      <trkpt lat="47.26926" lon="-1.67199">
        <ele>41</ele>
        <time>2023-11-13T15:08:14Z</time>
      </trkpt>
      <trkpt lat="47.2686" lon="-1.67167">
        <ele>40</ele>
        <time>2023-11-13T15:09:47Z</time>
      </trkpt>
      <trkpt lat="47.26849" lon="-1.67132">
        <ele>40</ele>
        <time>2023-11-13T15:10:22Z</time>
      </trkpt>
    </trkseg>
  </trk>
  <trk>
    <name><![CDATA[Sautron_CensMoncellierThomasiere_7.5km-8373530]]></name>
    <extensions>
      <line xmlns="http://www.topografix.com/GPX/gpx_style/0/2">
        <color>FF0000</color>
        <width>4</width>
      </line>
    </extensions>
    <trkseg>
      <trkpt lat="47.26475" lon="-1.66334">
        <ele>48</ele>
        <time>2023-11-13T11:11:08Z</time>
      </trkpt>
      <trkpt lat="47.26477" lon="-1.66323">
        <ele>48</ele>
        <time>2023-11-13T11:11:18Z</time>
      </trkpt>
      <trkpt lat="47.26479" lon="-1.66305">
        <ele>48</ele>
        <time>2023-11-13T11:11:35Z</time>
      </trkpt>
      <trkpt lat="47.26481" lon="-1.66296">
        <ele>48</ele>
        <time>2023-11-13T11:11:43Z</time>
      </trkpt>
      <trkpt lat="47.26485" lon="-1.66286">
        <ele>47</ele>
        <time>2023-11-13T11:11:54Z</time>
      </trkpt>
      <trkpt lat="47.26481" lon="-1.66263">
        <ele>47</ele>
        <time>2023-11-13T11:12:15Z</time>
      </trkpt>
      <trkpt lat="47.26492" lon="-1.66243">
        <ele>46</ele>
        <time>2023-11-13T11:12:39Z</time>
      </trkpt>
      <trkpt lat="47.26502" lon="-1.66237">
        <ele>45</ele>
        <time>2023-11-13T11:12:53Z</time>
      </trkpt>
      <trkpt lat="47.26509" lon="-1.66226">
        <ele>44</ele>
        <time>2023-11-13T11:13:07Z</time>
      </trkpt>
      <trkpt lat="47.26516" lon="-1.6622">
        <ele>43</ele>
        <time>2023-11-13T11:13:18Z</time>
      </trkpt>
      <trkpt lat="47.26527" lon="-1.66202">
        <ele>41</ele>
        <time>2023-11-13T11:13:40Z</time>
      </trkpt>
      <trkpt lat="47.26551" lon="-1.66171">
        <ele>39</ele>
        <time>2023-11-13T11:14:22Z</time>
      </trkpt>
      <trkpt lat="47.26575" lon="-1.66142">
        <ele>38</ele>
        <time>2023-11-13T11:15:04Z</time>
      </trkpt>
      <trkpt lat="47.26582" lon="-1.66135">
        <ele>38</ele>
        <time>2023-11-13T11:15:15Z</time>
      </trkpt>
      <trkpt lat="47.26596" lon="-1.66128">
        <ele>40</ele>
        <time>2023-11-13T11:15:35Z</time>
      </trkpt>
      <trkpt lat="47.26608" lon="-1.66137">
        <ele>41</ele>
        <time>2023-11-13T11:15:53Z</time>
      </trkpt>
      <trkpt lat="47.26622" lon="-1.66155">
        <ele>41</ele>
        <time>2023-11-13T11:16:17Z</time>
      </trkpt>
      <trkpt lat="47.26624" lon="-1.66158">
        <ele>42</ele>
        <time>2023-11-13T11:16:21Z</time>
      </trkpt>
      <trkpt lat="47.26627" lon="-1.6616">
        <ele>42</ele>
        <time>2023-11-13T11:16:26Z</time>
      </trkpt>
      <trkpt lat="47.26635" lon="-1.66149">
        <ele>43</ele>
        <time>2023-11-13T11:16:40Z</time>
      </trkpt>
      <trkpt lat="47.26633" lon="-1.66146">
        <ele>43</ele>
        <time>2023-11-13T11:16:44Z</time>
      </trkpt>
      <trkpt lat="47.26629" lon="-1.66115">
        <ele>43</ele>
        <time>2023-11-13T11:17:13Z</time>
      </trkpt>
      <trkpt lat="47.26626" lon="-1.66111">
        <ele>43</ele>
        <time>2023-11-13T11:17:18Z</time>
      </trkpt>
      <trkpt lat="47.26625" lon="-1.66108">
        <ele>43</ele>
        <time>2023-11-13T11:17:21Z</time>
      </trkpt>
      <trkpt lat="47.26624" lon="-1.66093">
        <ele>43</ele>
        <time>2023-11-13T11:17:35Z</time>
      </trkpt>
      <trkpt lat="47.266" lon="-1.66081">
        <ele>41</ele>
        <time>2023-11-13T11:18:08Z</time>
      </trkpt>
      <trkpt lat="47.26597" lon="-1.66079">
        <ele>40</ele>
        <time>2023-11-13T11:18:13Z</time>
      </trkpt>
      <trkpt lat="47.2658" lon="-1.66068">
        <ele>39</ele>
        <time>2023-11-13T11:18:38Z</time>
      </trkpt>
      <trkpt lat="47.26577" lon="-1.66066">
        <ele>39</ele>
        <time>2023-11-13T11:18:42Z</time>
      </trkpt>
      <trkpt lat="47.26551" lon="-1.66055">
        <ele>37</ele>
        <time>2023-11-13T11:19:18Z</time>
      </trkpt>
      <trkpt lat="47.26536" lon="-1.66051">
        <ele>36</ele>
        <time>2023-11-13T11:19:38Z</time>
      </trkpt>
      <trkpt lat="47.26524" lon="-1.66041">
        <ele>35</ele>
        <time>2023-11-13T11:19:57Z</time>
      </trkpt>
      <trkpt lat="47.26519" lon="-1.66023">
        <ele>34</ele>
        <time>2023-11-13T11:20:14Z</time>
      </trkpt>
      <trkpt lat="47.26518" lon="-1.6599">
        <ele>33</ele>
        <time>2023-11-13T11:20:44Z</time>
      </trkpt>
      <trkpt lat="47.26511" lon="-1.65949">
        <ele>33</ele>
        <time>2023-11-13T11:21:23Z</time>
      </trkpt>
      <trkpt lat="47.26508" lon="-1.65923">
        <ele>32</ele>
        <time>2023-11-13T11:21:47Z</time>
      </trkpt>
      <trkpt lat="47.26513" lon="-1.65893">
        <ele>34</ele>
        <time>2023-11-13T11:22:14Z</time>
      </trkpt>
      <trkpt lat="47.26523" lon="-1.65866">
        <ele>35</ele>
        <time>2023-11-13T11:22:42Z</time>
      </trkpt>
      <trkpt lat="47.26522" lon="-1.65849">
        <ele>36</ele>
        <time>2023-11-13T11:22:58Z</time>
      </trkpt>
      <trkpt lat="47.2652" lon="-1.65832">
        <ele>37</ele>
        <time>2023-11-13T11:23:13Z</time>
      </trkpt>
      <trkpt lat="47.2652" lon="-1.65822">
        <ele>38</ele>
        <time>2023-11-13T11:23:22Z</time>
      </trkpt>
      <trkpt lat="47.26516" lon="-1.65818">
        <ele>38</ele>
        <time>2023-11-13T11:23:29Z</time>
      </trkpt>
      <trkpt lat="47.26512" lon="-1.65794">
        <ele>40</ele>
        <time>2023-11-13T11:23:51Z</time>
      </trkpt>
      <trkpt lat="47.26509" lon="-1.65787">
        <ele>40</ele>
        <time>2023-11-13T11:23:59Z</time>
      </trkpt>
      <trkpt lat="47.26506" lon="-1.65788">
        <ele>40</ele>
        <time>2023-11-13T11:24:03Z</time>
      </trkpt>
      <trkpt lat="47.26507" lon="-1.65787">
        <ele>40</ele>
        <time>2023-11-13T11:24:05Z</time>
      </trkpt>
      <trkpt lat="47.26515" lon="-1.65766">
        <ele>42</ele>
        <time>2023-11-13T11:24:26Z</time>
      </trkpt>
      <trkpt lat="47.26517" lon="-1.65762">
        <ele>42</ele>
        <time>2023-11-13T11:24:31Z</time>
      </trkpt>
      <trkpt lat="47.26518" lon="-1.65757">
        <ele>42</ele>
        <time>2023-11-13T11:24:36Z</time>
      </trkpt>
      <trkpt lat="47.26491" lon="-1.65742">
        <ele>44</ele>
        <time>2023-11-13T11:25:14Z</time>
      </trkpt>
      <trkpt lat="47.26505" lon="-1.65742">
        <ele>43</ele>
        <time>2023-11-13T11:25:33Z</time>
      </trkpt>
      <trkpt lat="47.26515" lon="-1.65732">
        <ele>44</ele>
        <time>2023-11-13T11:25:49Z</time>
      </trkpt>
      <trkpt lat="47.26541" lon="-1.65722">
        <ele>44</ele>
        <time>2023-11-13T11:26:25Z</time>
      </trkpt>
      <trkpt lat="47.26559" lon="-1.65721">
        <ele>43</ele>
        <time>2023-11-13T11:26:49Z</time>
      </trkpt>
      <trkpt lat="47.26563" lon="-1.65726">
        <ele>43</ele>
        <time>2023-11-13T11:26:56Z</time>
      </trkpt>
      <trkpt lat="47.26571" lon="-1.65721">
        <ele>43</ele>
        <time>2023-11-13T11:27:07Z</time>
      </trkpt>
      <trkpt lat="47.26584" lon="-1.65708">
        <ele>43</ele>
        <time>2023-11-13T11:27:28Z</time>
      </trkpt>
      <trkpt lat="47.26587" lon="-1.65677">
        <ele>44</ele>
        <time>2023-11-13T11:27:57Z</time>
      </trkpt>
      <trkpt lat="47.26589" lon="-1.65672">
        <ele>44</ele>
        <time>2023-11-13T11:28:02Z</time>
      </trkpt>
      <trkpt lat="47.26589" lon="-1.65653">
        <ele>44</ele>
        <time>2023-11-13T11:28:19Z</time>
      </trkpt>
      <trkpt lat="47.26592" lon="-1.65647">
        <ele>45</ele>
        <time>2023-11-13T11:28:26Z</time>
      </trkpt>
      <trkpt lat="47.26592" lon="-1.65642">
        <ele>45</ele>
        <time>2023-11-13T11:28:30Z</time>
      </trkpt>
      <trkpt lat="47.26579" lon="-1.65603">
        <ele>46</ele>
        <time>2023-11-13T11:29:10Z</time>
      </trkpt>
      <trkpt lat="47.2658" lon="-1.65597">
        <ele>47</ele>
        <time>2023-11-13T11:29:15Z</time>
      </trkpt>
      <trkpt lat="47.266" lon="-1.65601">
        <ele>46</ele>
        <time>2023-11-13T11:29:42Z</time>
      </trkpt>
      <trkpt lat="47.26613" lon="-1.65605">
        <ele>46</ele>
        <time>2023-11-13T11:30:00Z</time>
      </trkpt>
      <trkpt lat="47.26618" lon="-1.65611">
        <ele>45</ele>
        <time>2023-11-13T11:30:09Z</time>
      </trkpt>
      <trkpt lat="47.26643" lon="-1.65612">
        <ele>45</ele>
        <time>2023-11-13T11:30:42Z</time>
      </trkpt>
      <trkpt lat="47.26644" lon="-1.65612">
        <ele>45</ele>
        <time>2023-11-13T11:30:43Z</time>
      </trkpt>
      <trkpt lat="47.26661" lon="-1.65617">
        <ele>44</ele>
        <time>2023-11-13T11:31:06Z</time>
      </trkpt>
      <trkpt lat="47.26667" lon="-1.65621">
        <ele>44</ele>
        <time>2023-11-13T11:31:15Z</time>
      </trkpt>
      <trkpt lat="47.26678" lon="-1.65625">
        <ele>43</ele>
        <time>2023-11-13T11:31:30Z</time>
      </trkpt>
      <trkpt lat="47.26694" lon="-1.65627">
        <ele>41</ele>
        <time>2023-11-13T11:31:52Z</time>
      </trkpt>
      <trkpt lat="47.26707" lon="-1.65618">
        <ele>40</ele>
        <time>2023-11-13T11:32:11Z</time>
      </trkpt>
      <trkpt lat="47.26723" lon="-1.65612">
        <ele>39</ele>
        <time>2023-11-13T11:32:33Z</time>
      </trkpt>
      <trkpt lat="47.26738" lon="-1.65596">
        <ele>38</ele>
        <time>2023-11-13T11:32:58Z</time>
      </trkpt>
      <trkpt lat="47.26752" lon="-1.6558">
        <ele>37</ele>
        <time>2023-11-13T11:33:21Z</time>
      </trkpt>
      <trkpt lat="47.26768" lon="-1.65556">
        <ele>37</ele>
        <time>2023-11-13T11:33:52Z</time>
      </trkpt>
      <trkpt lat="47.26772" lon="-1.65537">
        <ele>37</ele>
        <time>2023-11-13T11:34:10Z</time>
      </trkpt>
      <trkpt lat="47.26772" lon="-1.65537">
        <ele>37</ele>
        <time>2023-11-13T11:34:10Z</time>
      </trkpt>
      <trkpt lat="47.26771" lon="-1.65538">
        <ele>37</ele>
        <time>2023-11-13T11:34:11Z</time>
      </trkpt>
      <trkpt lat="47.26772" lon="-1.65541">
        <ele>37</ele>
        <time>2023-11-13T11:34:14Z</time>
      </trkpt>
      <trkpt lat="47.26772" lon="-1.65542">
        <ele>37</ele>
        <time>2023-11-13T11:34:15Z</time>
      </trkpt>
      <trkpt lat="47.26771" lon="-1.65542">
        <ele>37</ele>
        <time>2023-11-13T11:34:17Z</time>
      </trkpt>
      <trkpt lat="47.26771" lon="-1.65542">
        <ele>37</ele>
        <time>2023-11-13T11:34:17Z</time>
      </trkpt>
      <trkpt lat="47.26768" lon="-1.65524">
        <ele>38</ele>
        <time>2023-11-13T11:34:33Z</time>
      </trkpt>
      <trkpt lat="47.26765" lon="-1.65516">
        <ele>39</ele>
        <time>2023-11-13T11:34:42Z</time>
      </trkpt>
      <trkpt lat="47.26764" lon="-1.65504">
        <ele>39</ele>
        <time>2023-11-13T11:34:53Z</time>
      </trkpt>
      <trkpt lat="47.26764" lon="-1.65468">
        <ele>39</ele>
        <time>2023-11-13T11:35:25Z</time>
      </trkpt>
      <trkpt lat="47.26761" lon="-1.65446">
        <ele>40</ele>
        <time>2023-11-13T11:35:46Z</time>
      </trkpt>
      <trkpt lat="47.26764" lon="-1.6543">
        <ele>39</ele>
        <time>2023-11-13T11:36:01Z</time>
      </trkpt>
      <trkpt lat="47.26757" lon="-1.65391">
        <ele>40</ele>
        <time>2023-11-13T11:36:37Z</time>
      </trkpt>
      <trkpt lat="47.26748" lon="-1.65346">
        <ele>40</ele>
        <time>2023-11-13T11:37:20Z</time>
      </trkpt>
      <trkpt lat="47.2675" lon="-1.65339">
        <ele>39</ele>
        <time>2023-11-13T11:37:27Z</time>
      </trkpt>
      <trkpt lat="47.26759" lon="-1.65323">
        <ele>38</ele>
        <time>2023-11-13T11:37:45Z</time>
      </trkpt>
      <trkpt lat="47.26762" lon="-1.65318">
        <ele>38</ele>
        <time>2023-11-13T11:37:51Z</time>
      </trkpt>
      <trkpt lat="47.26759" lon="-1.65298">
        <ele>38</ele>
        <time>2023-11-13T11:38:10Z</time>
      </trkpt>
      <trkpt lat="47.26766" lon="-1.65267">
        <ele>38</ele>
        <time>2023-11-13T11:38:40Z</time>
      </trkpt>
      <trkpt lat="47.26782" lon="-1.65243">
        <ele>36</ele>
        <time>2023-11-13T11:39:10Z</time>
      </trkpt>
      <trkpt lat="47.26784" lon="-1.65216">
        <ele>37</ele>
        <time>2023-11-13T11:39:35Z</time>
      </trkpt>
      <trkpt lat="47.26787" lon="-1.65189">
        <ele>38</ele>
        <time>2023-11-13T11:39:59Z</time>
      </trkpt>
      <trkpt lat="47.26795" lon="-1.65171">
        <ele>37</ele>
        <time>2023-11-13T11:40:19Z</time>
      </trkpt>
      <trkpt lat="47.26821" lon="-1.65127">
        <ele>35</ele>
        <time>2023-11-13T11:41:12Z</time>
      </trkpt>
      <trkpt lat="47.26833" lon="-1.65112">
        <ele>34</ele>
        <time>2023-11-13T11:41:33Z</time>
      </trkpt>
      <trkpt lat="47.26837" lon="-1.65085">
        <ele>36</ele>
        <time>2023-11-13T11:41:58Z</time>
      </trkpt>
      <trkpt lat="47.26837" lon="-1.65082">
        <ele>36</ele>
        <time>2023-11-13T11:42:00Z</time>
      </trkpt>
      <trkpt lat="47.26842" lon="-1.65068">
        <ele>37</ele>
        <time>2023-11-13T11:42:15Z</time>
      </trkpt>
      <trkpt lat="47.26844" lon="-1.65066">
        <ele>37</ele>
        <time>2023-11-13T11:42:18Z</time>
      </trkpt>
      <trkpt lat="47.26845" lon="-1.65053">
        <ele>38</ele>
        <time>2023-11-13T11:42:30Z</time>
      </trkpt>
      <trkpt lat="47.26851" lon="-1.65013">
        <ele>39</ele>
        <time>2023-11-13T11:43:07Z</time>
      </trkpt>
      <trkpt lat="47.26862" lon="-1.64993">
        <ele>40</ele>
        <time>2023-11-13T11:43:30Z</time>
      </trkpt>
      <trkpt lat="47.26867" lon="-1.64972">
        <ele>40</ele>
        <time>2023-11-13T11:43:50Z</time>
      </trkpt>
      <trkpt lat="47.26873" lon="-1.64953">
        <ele>40</ele>
        <time>2023-11-13T11:44:09Z</time>
      </trkpt>
      <trkpt lat="47.26881" lon="-1.64929">
        <ele>40</ele>
        <time>2023-11-13T11:44:34Z</time>
      </trkpt>
      <trkpt lat="47.26893" lon="-1.64897">
        <ele>40</ele>
        <time>2023-11-13T11:45:07Z</time>
      </trkpt>
      <trkpt lat="47.26902" lon="-1.64878">
        <ele>40</ele>
        <time>2023-11-13T11:45:28Z</time>
      </trkpt>
      <trkpt lat="47.26908" lon="-1.64845">
        <ele>40</ele>
        <time>2023-11-13T11:45:59Z</time>
      </trkpt>
      <trkpt lat="47.26927" lon="-1.64828">
        <ele>39</ele>
        <time>2023-11-13T11:46:28Z</time>
      </trkpt>
      <trkpt lat="47.2693" lon="-1.64825">
        <ele>39</ele>
        <time>2023-11-13T11:46:33Z</time>
      </trkpt>
      <trkpt lat="47.26938" lon="-1.64824">
        <ele>38</ele>
        <time>2023-11-13T11:46:44Z</time>
      </trkpt>
      <trkpt lat="47.26959" lon="-1.6482">
        <ele>37</ele>
        <time>2023-11-13T11:47:12Z</time>
      </trkpt>
      <trkpt lat="47.26959" lon="-1.64813">
        <ele>37</ele>
        <time>2023-11-13T11:47:18Z</time>
      </trkpt>
      <trkpt lat="47.2696" lon="-1.64785">
        <ele>38</ele>
        <time>2023-11-13T11:47:44Z</time>
      </trkpt>
      <trkpt lat="47.26974" lon="-1.64738">
        <ele>36</ele>
        <time>2023-11-13T11:48:30Z</time>
      </trkpt>
      <trkpt lat="47.26975" lon="-1.64716">
        <ele>37</ele>
        <time>2023-11-13T11:48:50Z</time>
      </trkpt>
      <trkpt lat="47.26972" lon="-1.64697">
        <ele>38</ele>
        <time>2023-11-13T11:49:08Z</time>
      </trkpt>
      <trkpt lat="47.26971" lon="-1.64662">
        <ele>39</ele>
        <time>2023-11-13T11:49:40Z</time>
      </trkpt>
      <trkpt lat="47.26969" lon="-1.64631">
        <ele>40</ele>
        <time>2023-11-13T11:50:08Z</time>
      </trkpt>
      <trkpt lat="47.26964" lon="-1.64586">
        <ele>41</ele>
        <time>2023-11-13T11:50:49Z</time>
      </trkpt>
      <trkpt lat="47.26964" lon="-1.64551">
        <ele>42</ele>
        <time>2023-11-13T11:51:21Z</time>
      </trkpt>
      <trkpt lat="47.26971" lon="-1.64533">
        <ele>41</ele>
        <time>2023-11-13T11:51:40Z</time>
      </trkpt>
      <trkpt lat="47.26986" lon="-1.64512">
        <ele>40</ele>
        <time>2023-11-13T11:52:07Z</time>
      </trkpt>
      <trkpt lat="47.27002" lon="-1.64478">
        <ele>39</ele>
        <time>2023-11-13T11:52:45Z</time>
      </trkpt>
      <trkpt lat="47.27009" lon="-1.64465">
        <ele>39</ele>
        <time>2023-11-13T11:53:00Z</time>
      </trkpt>
      <trkpt lat="47.27017" lon="-1.64459">
        <ele>39</ele>
        <time>2023-11-13T11:53:12Z</time>
      </trkpt>
      <trkpt lat="47.27031" lon="-1.64464">
        <ele>40</ele>
        <time>2023-11-13T11:53:31Z</time>
      </trkpt>
      <trkpt lat="47.27032" lon="-1.64463">
        <ele>40</ele>
        <time>2023-11-13T11:53:33Z</time>
      </trkpt>
      <trkpt lat="47.27039" lon="-1.64476">
        <ele>40</ele>
        <time>2023-11-13T11:53:48Z</time>
      </trkpt>
      <trkpt lat="47.27052" lon="-1.64487">
        <ele>40</ele>
        <time>2023-11-13T11:54:08Z</time>
      </trkpt>
      <trkpt lat="47.27062" lon="-1.64497">
        <ele>40</ele>
        <time>2023-11-13T11:54:24Z</time>
      </trkpt>
      <trkpt lat="47.27074" lon="-1.64504">
        <ele>41</ele>
        <time>2023-11-13T11:54:41Z</time>
      </trkpt>
      <trkpt lat="47.27083" lon="-1.64512">
        <ele>41</ele>
        <time>2023-11-13T11:54:55Z</time>
      </trkpt>
      <trkpt lat="47.27094" lon="-1.64521">
        <ele>41</ele>
        <time>2023-11-13T11:55:12Z</time>
      </trkpt>
      <trkpt lat="47.271" lon="-1.64538">
        <ele>41</ele>
        <time>2023-11-13T11:55:29Z</time>
      </trkpt>
      <trkpt lat="47.27107" lon="-1.6455">
        <ele>41</ele>
        <time>2023-11-13T11:55:43Z</time>
      </trkpt>
      <trkpt lat="47.27111" lon="-1.64553">
        <ele>41</ele>
        <time>2023-11-13T11:55:49Z</time>
      </trkpt>
      <trkpt lat="47.27125" lon="-1.64548">
        <ele>42</ele>
        <time>2023-11-13T11:56:09Z</time>
      </trkpt>
      <trkpt lat="47.2714" lon="-1.64548">
        <ele>43</ele>
        <time>2023-11-13T11:56:29Z</time>
      </trkpt>
      <trkpt lat="47.27155" lon="-1.64544">
        <ele>44</ele>
        <time>2023-11-13T11:56:49Z</time>
      </trkpt>
      <trkpt lat="47.27172" lon="-1.64542">
        <ele>45</ele>
        <time>2023-11-13T11:57:12Z</time>
      </trkpt>
      <trkpt lat="47.27186" lon="-1.6454">
        <ele>45</ele>
        <time>2023-11-13T11:57:30Z</time>
      </trkpt>
      <trkpt lat="47.272" lon="-1.64539">
        <ele>46</ele>
        <time>2023-11-13T11:57:49Z</time>
      </trkpt>
      <trkpt lat="47.27207" lon="-1.64538">
        <ele>46</ele>
        <time>2023-11-13T11:57:59Z</time>
      </trkpt>
      <trkpt lat="47.27211" lon="-1.6454">
        <ele>46</ele>
        <time>2023-11-13T11:58:04Z</time>
      </trkpt>
      <trkpt lat="47.27223" lon="-1.64536">
        <ele>47</ele>
        <time>2023-11-13T11:58:21Z</time>
      </trkpt>
      <trkpt lat="47.27235" lon="-1.64539">
        <ele>47</ele>
        <time>2023-11-13T11:58:37Z</time>
      </trkpt>
      <trkpt lat="47.2724" lon="-1.64533">
        <ele>48</ele>
        <time>2023-11-13T11:58:45Z</time>
      </trkpt>
      <trkpt lat="47.27314" lon="-1.64537">
        <ele>50</ele>
        <time>2023-11-13T12:00:24Z</time>
      </trkpt>
      <trkpt lat="47.27326" lon="-1.64535">
        <ele>50</ele>
        <time>2023-11-13T12:00:40Z</time>
      </trkpt>
      <trkpt lat="47.27328" lon="-1.64534">
        <ele>50</ele>
        <time>2023-11-13T12:00:43Z</time>
      </trkpt>
      <trkpt lat="47.27356" lon="-1.64524">
        <ele>52</ele>
        <time>2023-11-13T12:01:22Z</time>
      </trkpt>
      <trkpt lat="47.27379" lon="-1.64512">
        <ele>52</ele>
        <time>2023-11-13T12:01:54Z</time>
      </trkpt>
      <trkpt lat="47.27405" lon="-1.64498">
        <ele>54</ele>
        <time>2023-11-13T12:02:31Z</time>
      </trkpt>
      <trkpt lat="47.27422" lon="-1.64494">
        <ele>54</ele>
        <time>2023-11-13T12:02:54Z</time>
      </trkpt>
      <trkpt lat="47.2747" lon="-1.6449">
        <ele>57</ele>
        <time>2023-11-13T12:03:58Z</time>
      </trkpt>
      <trkpt lat="47.27488" lon="-1.64488">
        <ele>58</ele>
        <time>2023-11-13T12:04:22Z</time>
      </trkpt>
      <trkpt lat="47.27515" lon="-1.6447">
        <ele>59</ele>
        <time>2023-11-13T12:05:02Z</time>
      </trkpt>
      <trkpt lat="47.2752" lon="-1.64468">
        <ele>59</ele>
        <time>2023-11-13T12:05:09Z</time>
      </trkpt>
      <trkpt lat="47.27537" lon="-1.6446">
        <ele>60</ele>
        <time>2023-11-13T12:05:33Z</time>
      </trkpt>
      <trkpt lat="47.27542" lon="-1.6446">
        <ele>60</ele>
        <time>2023-11-13T12:05:39Z</time>
      </trkpt>
      <trkpt lat="47.2755" lon="-1.64458">
        <ele>60</ele>
        <time>2023-11-13T12:05:50Z</time>
      </trkpt>
      <trkpt lat="47.27555" lon="-1.64458">
        <ele>60</ele>
        <time>2023-11-13T12:05:57Z</time>
      </trkpt>
      <trkpt lat="47.27559" lon="-1.6447">
        <ele>60</ele>
        <time>2023-11-13T12:06:09Z</time>
      </trkpt>
      <trkpt lat="47.27558" lon="-1.64474">
        <ele>60</ele>
        <time>2023-11-13T12:06:13Z</time>
      </trkpt>
      <trkpt lat="47.27561" lon="-1.6451">
        <ele>59</ele>
        <time>2023-11-13T12:06:46Z</time>
      </trkpt>
      <trkpt lat="47.27561" lon="-1.64529">
        <ele>59</ele>
        <time>2023-11-13T12:07:03Z</time>
      </trkpt>
      <trkpt lat="47.27561" lon="-1.64531">
        <ele>59</ele>
        <time>2023-11-13T12:07:05Z</time>
      </trkpt>
      <trkpt lat="47.27563" lon="-1.64562">
        <ele>58</ele>
        <time>2023-11-13T12:07:33Z</time>
      </trkpt>
      <trkpt lat="47.27563" lon="-1.64589">
        <ele>58</ele>
        <time>2023-11-13T12:07:57Z</time>
      </trkpt>
      <trkpt lat="47.27561" lon="-1.64592">
        <ele>58</ele>
        <time>2023-11-13T12:08:01Z</time>
      </trkpt>
      <trkpt lat="47.27558" lon="-1.64601">
        <ele>58</ele>
        <time>2023-11-13T12:08:10Z</time>
      </trkpt>
      <trkpt lat="47.2755" lon="-1.64633">
        <ele>58</ele>
        <time>2023-11-13T12:08:41Z</time>
      </trkpt>
      <trkpt lat="47.27547" lon="-1.64653">
        <ele>58</ele>
        <time>2023-11-13T12:09:00Z</time>
      </trkpt>
      <trkpt lat="47.2754" lon="-1.6475">
        <ele>60</ele>
        <time>2023-11-13T12:10:28Z</time>
      </trkpt>
      <trkpt lat="47.27527" lon="-1.64796">
        <ele>61</ele>
        <time>2023-11-13T12:11:13Z</time>
      </trkpt>
      <trkpt lat="47.27516" lon="-1.64828">
        <ele>61</ele>
        <time>2023-11-13T12:11:46Z</time>
      </trkpt>
      <trkpt lat="47.27496" lon="-1.64826">
        <ele>61</ele>
        <time>2023-11-13T12:12:12Z</time>
      </trkpt>
      <trkpt lat="47.27492" lon="-1.64827">
        <ele>60</ele>
        <time>2023-11-13T12:12:18Z</time>
      </trkpt>
      <trkpt lat="47.27487" lon="-1.64825">
        <ele>60</ele>
        <time>2023-11-13T12:12:25Z</time>
      </trkpt>
      <trkpt lat="47.27485" lon="-1.64824">
        <ele>60</ele>
        <time>2023-11-13T12:12:27Z</time>
      </trkpt>
      <trkpt lat="47.27469" lon="-1.64824">
        <ele>59</ele>
        <time>2023-11-13T12:12:49Z</time>
      </trkpt>
      <trkpt lat="47.27454" lon="-1.64816">
        <ele>58</ele>
        <time>2023-11-13T12:13:10Z</time>
      </trkpt>
      <trkpt lat="47.27442" lon="-1.64818">
        <ele>57</ele>
        <time>2023-11-13T12:13:26Z</time>
      </trkpt>
      <trkpt lat="47.27429" lon="-1.64834">
        <ele>57</ele>
        <time>2023-11-13T12:13:49Z</time>
      </trkpt>
      <trkpt lat="47.27429" lon="-1.64841">
        <ele>57</ele>
        <time>2023-11-13T12:13:55Z</time>
      </trkpt>
      <trkpt lat="47.27431" lon="-1.64864">
        <ele>58</ele>
        <time>2023-11-13T12:14:16Z</time>
      </trkpt>
      <trkpt lat="47.27439" lon="-1.64893">
        <ele>59</ele>
        <time>2023-11-13T12:14:44Z</time>
      </trkpt>
      <trkpt lat="47.27439" lon="-1.64898">
        <ele>59</ele>
        <time>2023-11-13T12:14:49Z</time>
      </trkpt>
      <trkpt lat="47.27444" lon="-1.64924">
        <ele>60</ele>
        <time>2023-11-13T12:15:13Z</time>
      </trkpt>
      <trkpt lat="47.27448" lon="-1.6493">
        <ele>60</ele>
        <time>2023-11-13T12:15:21Z</time>
      </trkpt>
      <trkpt lat="47.27451" lon="-1.64937">
        <ele>60</ele>
        <time>2023-11-13T12:15:29Z</time>
      </trkpt>
      <trkpt lat="47.27475" lon="-1.64957">
        <ele>60</ele>
        <time>2023-11-13T12:16:05Z</time>
      </trkpt>
      <trkpt lat="47.27496" lon="-1.64956">
        <ele>61</ele>
        <time>2023-11-13T12:16:33Z</time>
      </trkpt>
      <trkpt lat="47.27523" lon="-1.6496">
        <ele>61</ele>
        <time>2023-11-13T12:17:10Z</time>
      </trkpt>
      <trkpt lat="47.27522" lon="-1.64964">
        <ele>61</ele>
        <time>2023-11-13T12:17:13Z</time>
      </trkpt>
      <trkpt lat="47.2752" lon="-1.64961">
        <ele>61</ele>
        <time>2023-11-13T12:17:17Z</time>
      </trkpt>
      <trkpt lat="47.27495" lon="-1.64961">
        <ele>61</ele>
        <time>2023-11-13T12:17:51Z</time>
      </trkpt>
      <trkpt lat="47.27474" lon="-1.64959">
        <ele>60</ele>
        <time>2023-11-13T12:18:19Z</time>
      </trkpt>
      <trkpt lat="47.27473" lon="-1.64957">
        <ele>60</ele>
        <time>2023-11-13T12:18:21Z</time>
      </trkpt>
      <trkpt lat="47.27467" lon="-1.64959">
        <ele>60</ele>
        <time>2023-11-13T12:18:29Z</time>
      </trkpt>
      <trkpt lat="47.2747" lon="-1.64957">
        <ele>60</ele>
        <time>2023-11-13T12:18:34Z</time>
      </trkpt>
      <trkpt lat="47.2751" lon="-1.64957">
        <ele>61</ele>
        <time>2023-11-13T12:19:27Z</time>
      </trkpt>
      <trkpt lat="47.27532" lon="-1.64977">
        <ele>61</ele>
        <time>2023-11-13T12:20:01Z</time>
      </trkpt>
      <trkpt lat="47.27534" lon="-1.65004">
        <ele>61</ele>
        <time>2023-11-13T12:20:26Z</time>
      </trkpt>
      <trkpt lat="47.27558" lon="-1.65114">
        <ele>62</ele>
        <time>2023-11-13T12:22:11Z</time>
      </trkpt>
      <trkpt lat="47.27557" lon="-1.65128">
        <ele>62</ele>
        <time>2023-11-13T12:22:23Z</time>
      </trkpt>
      <trkpt lat="47.2755" lon="-1.6516">
        <ele>61</ele>
        <time>2023-11-13T12:22:54Z</time>
      </trkpt>
      <trkpt lat="47.27512" lon="-1.65268">
        <ele>55</ele>
        <time>2023-11-13T12:24:44Z</time>
      </trkpt>
      <trkpt lat="47.27508" lon="-1.65319">
        <ele>53</ele>
        <time>2023-11-13T12:25:30Z</time>
      </trkpt>
      <trkpt lat="47.27515" lon="-1.65364">
        <ele>54</ele>
        <time>2023-11-13T12:26:12Z</time>
      </trkpt>
      <trkpt lat="47.27532" lon="-1.65404">
        <ele>54</ele>
        <time>2023-11-13T12:26:55Z</time>
      </trkpt>
      <trkpt lat="47.27557" lon="-1.6544">
        <ele>54</ele>
        <time>2023-11-13T12:27:42Z</time>
      </trkpt>
      <trkpt lat="47.27568" lon="-1.65478">
        <ele>55</ele>
        <time>2023-11-13T12:28:19Z</time>
      </trkpt>
      <trkpt lat="47.27571" lon="-1.65515">
        <ele>55</ele>
        <time>2023-11-13T12:28:53Z</time>
      </trkpt>
      <trkpt lat="47.27571" lon="-1.65516">
        <ele>55</ele>
        <time>2023-11-13T12:28:54Z</time>
      </trkpt>
      <trkpt lat="47.27573" lon="-1.65561">
        <ele>56</ele>
        <time>2023-11-13T12:29:35Z</time>
      </trkpt>
      <trkpt lat="47.2757" lon="-1.65598">
        <ele>57</ele>
        <time>2023-11-13T12:30:08Z</time>
      </trkpt>
      <trkpt lat="47.27539" lon="-1.65604">
        <ele>58</ele>
        <time>2023-11-13T12:30:50Z</time>
      </trkpt>
      <trkpt lat="47.27516" lon="-1.6561">
        <ele>59</ele>
        <time>2023-11-13T12:31:21Z</time>
      </trkpt>
      <trkpt lat="47.27498" lon="-1.65618">
        <ele>59</ele>
        <time>2023-11-13T12:31:46Z</time>
      </trkpt>
      <trkpt lat="47.27481" lon="-1.6562">
        <ele>59</ele>
        <time>2023-11-13T12:32:09Z</time>
      </trkpt>
      <trkpt lat="47.27465" lon="-1.65634">
        <ele>58</ele>
        <time>2023-11-13T12:32:34Z</time>
      </trkpt>
      <trkpt lat="47.27438" lon="-1.6561">
        <ele>57</ele>
        <time>2023-11-13T12:33:16Z</time>
      </trkpt>
      <trkpt lat="47.27434" lon="-1.65605">
        <ele>57</ele>
        <time>2023-11-13T12:33:23Z</time>
      </trkpt>
      <trkpt lat="47.27422" lon="-1.6559">
        <ele>56</ele>
        <time>2023-11-13T12:33:44Z</time>
      </trkpt>
      <trkpt lat="47.27401" lon="-1.65558">
        <ele>55</ele>
        <time>2023-11-13T12:34:24Z</time>
      </trkpt>
      <trkpt lat="47.27379" lon="-1.65537">
        <ele>53</ele>
        <time>2023-11-13T12:34:59Z</time>
      </trkpt>
      <trkpt lat="47.27353" lon="-1.65518">
        <ele>52</ele>
        <time>2023-11-13T12:35:38Z</time>
      </trkpt>
      <trkpt lat="47.27337" lon="-1.65495">
        <ele>51</ele>
        <time>2023-11-13T12:36:08Z</time>
      </trkpt>
      <trkpt lat="47.27322" lon="-1.65477">
        <ele>50</ele>
        <time>2023-11-13T12:36:34Z</time>
      </trkpt>
      <trkpt lat="47.27298" lon="-1.65449">
        <ele>48</ele>
        <time>2023-11-13T12:37:14Z</time>
      </trkpt>
      <trkpt lat="47.27284" lon="-1.65439">
        <ele>47</ele>
        <time>2023-11-13T12:37:35Z</time>
      </trkpt>
      <trkpt lat="47.27265" lon="-1.65427">
        <ele>46</ele>
        <time>2023-11-13T12:38:03Z</time>
      </trkpt>
      <trkpt lat="47.2724" lon="-1.65414">
        <ele>45</ele>
        <time>2023-11-13T12:38:38Z</time>
      </trkpt>
      <trkpt lat="47.27236" lon="-1.65411">
        <ele>45</ele>
        <time>2023-11-13T12:38:44Z</time>
      </trkpt>
      <trkpt lat="47.27217" lon="-1.65403">
        <ele>44</ele>
        <time>2023-11-13T12:39:10Z</time>
      </trkpt>
      <trkpt lat="47.27205" lon="-1.65393">
        <ele>44</ele>
        <time>2023-11-13T12:39:29Z</time>
      </trkpt>
      <trkpt lat="47.27183" lon="-1.65375">
        <ele>43</ele>
        <time>2023-11-13T12:40:02Z</time>
      </trkpt>
      <trkpt lat="47.27149" lon="-1.65328">
        <ele>41</ele>
        <time>2023-11-13T12:41:05Z</time>
      </trkpt>
      <trkpt lat="47.27135" lon="-1.65311">
        <ele>41</ele>
        <time>2023-11-13T12:41:29Z</time>
      </trkpt>
      <trkpt lat="47.27134" lon="-1.65311">
        <ele>41</ele>
        <time>2023-11-13T12:41:30Z</time>
      </trkpt>
      <trkpt lat="47.27121" lon="-1.65301">
        <ele>40</ele>
        <time>2023-11-13T12:41:50Z</time>
      </trkpt>
      <trkpt lat="47.27109" lon="-1.65292">
        <ele>40</ele>
        <time>2023-11-13T12:42:08Z</time>
      </trkpt>
      <trkpt lat="47.27107" lon="-1.65292">
        <ele>40</ele>
        <time>2023-11-13T12:42:10Z</time>
      </trkpt>
      <trkpt lat="47.27106" lon="-1.65291">
        <ele>40</ele>
        <time>2023-11-13T12:42:12Z</time>
      </trkpt>
      <trkpt lat="47.27106" lon="-1.65289">
        <ele>40</ele>
        <time>2023-11-13T12:42:14Z</time>
      </trkpt>
      <trkpt lat="47.27106" lon="-1.65279">
        <ele>40</ele>
        <time>2023-11-13T12:42:23Z</time>
      </trkpt>
      <trkpt lat="47.27105" lon="-1.65274">
        <ele>40</ele>
        <time>2023-11-13T12:42:28Z</time>
      </trkpt>
      <trkpt lat="47.27105" lon="-1.65274">
        <ele>40</ele>
        <time>2023-11-13T12:42:28Z</time>
      </trkpt>
      <trkpt lat="47.27117" lon="-1.65272">
        <ele>40</ele>
        <time>2023-11-13T12:42:44Z</time>
      </trkpt>
      <trkpt lat="47.27126" lon="-1.65273">
        <ele>40</ele>
        <time>2023-11-13T12:42:56Z</time>
      </trkpt>
      <trkpt lat="47.27121" lon="-1.65273">
        <ele>40</ele>
        <time>2023-11-13T12:43:02Z</time>
      </trkpt>
      <trkpt lat="47.27107" lon="-1.65277">
        <ele>40</ele>
        <time>2023-11-13T12:43:21Z</time>
      </trkpt>
      <trkpt lat="47.27104" lon="-1.65284">
        <ele>40</ele>
        <time>2023-11-13T12:43:29Z</time>
      </trkpt>
      <trkpt lat="47.27102" lon="-1.65294">
        <ele>40</ele>
        <time>2023-11-13T12:43:38Z</time>
      </trkpt>
      <trkpt lat="47.27109" lon="-1.653">
        <ele>40</ele>
        <time>2023-11-13T12:43:49Z</time>
      </trkpt>
      <trkpt lat="47.27134" lon="-1.65308">
        <ele>41</ele>
        <time>2023-11-13T12:44:23Z</time>
      </trkpt>
      <trkpt lat="47.27136" lon="-1.65309">
        <ele>41</ele>
        <time>2023-11-13T12:44:26Z</time>
      </trkpt>
      <trkpt lat="47.27165" lon="-1.65353">
        <ele>43</ele>
        <time>2023-11-13T12:45:22Z</time>
      </trkpt>
      <trkpt lat="47.27169" lon="-1.65364">
        <ele>43</ele>
        <time>2023-11-13T12:45:33Z</time>
      </trkpt>
      <trkpt lat="47.27175" lon="-1.65368">
        <ele>43</ele>
        <time>2023-11-13T12:45:42Z</time>
      </trkpt>
      <trkpt lat="47.27179" lon="-1.65376">
        <ele>43</ele>
        <time>2023-11-13T12:45:51Z</time>
      </trkpt>
      <trkpt lat="47.27188" lon="-1.65383">
        <ele>44</ele>
        <time>2023-11-13T12:46:04Z</time>
      </trkpt>
      <trkpt lat="47.2721" lon="-1.65395">
        <ele>44</ele>
        <time>2023-11-13T12:46:36Z</time>
      </trkpt>
      <trkpt lat="47.27227" lon="-1.65405">
        <ele>44</ele>
        <time>2023-11-13T12:47:00Z</time>
      </trkpt>
      <trkpt lat="47.27248" lon="-1.65416">
        <ele>45</ele>
        <time>2023-11-13T12:47:30Z</time>
      </trkpt>
      <trkpt lat="47.27252" lon="-1.65418">
        <ele>45</ele>
        <time>2023-11-13T12:47:35Z</time>
      </trkpt>
      <trkpt lat="47.27259" lon="-1.65423">
        <ele>46</ele>
        <time>2023-11-13T12:47:46Z</time>
      </trkpt>
      <trkpt lat="47.27271" lon="-1.6543">
        <ele>46</ele>
        <time>2023-11-13T12:48:03Z</time>
      </trkpt>
      <trkpt lat="47.27275" lon="-1.65436">
        <ele>47</ele>
        <time>2023-11-13T12:48:11Z</time>
      </trkpt>
      <trkpt lat="47.27279" lon="-1.65437">
        <ele>47</ele>
        <time>2023-11-13T12:48:16Z</time>
      </trkpt>
      <trkpt lat="47.27285" lon="-1.65439">
        <ele>47</ele>
        <time>2023-11-13T12:48:24Z</time>
      </trkpt>
      <trkpt lat="47.27302" lon="-1.65452">
        <ele>48</ele>
        <time>2023-11-13T12:48:50Z</time>
      </trkpt>
      <trkpt lat="47.27322" lon="-1.65467">
        <ele>49</ele>
        <time>2023-11-13T12:49:20Z</time>
      </trkpt>
      <trkpt lat="47.27329" lon="-1.65476">
        <ele>50</ele>
        <time>2023-11-13T12:49:32Z</time>
      </trkpt>
      <trkpt lat="47.27336" lon="-1.6549">
        <ele>51</ele>
        <time>2023-11-13T12:49:48Z</time>
      </trkpt>
      <trkpt lat="47.27344" lon="-1.65504">
        <ele>51</ele>
        <time>2023-11-13T12:50:05Z</time>
      </trkpt>
      <trkpt lat="47.27358" lon="-1.65517">
        <ele>52</ele>
        <time>2023-11-13T12:50:27Z</time>
      </trkpt>
      <trkpt lat="47.27365" lon="-1.65523">
        <ele>52</ele>
        <time>2023-11-13T12:50:37Z</time>
      </trkpt>
      <trkpt lat="47.27379" lon="-1.65534">
        <ele>53</ele>
        <time>2023-11-13T12:50:59Z</time>
      </trkpt>
      <trkpt lat="47.27394" lon="-1.65543">
        <ele>54</ele>
        <time>2023-11-13T12:51:20Z</time>
      </trkpt>
      <trkpt lat="47.27406" lon="-1.6556">
        <ele>55</ele>
        <time>2023-11-13T12:51:42Z</time>
      </trkpt>
      <trkpt lat="47.2742" lon="-1.65577">
        <ele>56</ele>
        <time>2023-11-13T12:52:07Z</time>
      </trkpt>
      <trkpt lat="47.27424" lon="-1.65583">
        <ele>56</ele>
        <time>2023-11-13T12:52:14Z</time>
      </trkpt>
      <trkpt lat="47.27438" lon="-1.65604">
        <ele>57</ele>
        <time>2023-11-13T12:52:41Z</time>
      </trkpt>
      <trkpt lat="47.27441" lon="-1.65607">
        <ele>57</ele>
        <time>2023-11-13T12:52:46Z</time>
      </trkpt>
      <trkpt lat="47.2745" lon="-1.65621">
        <ele>57</ele>
        <time>2023-11-13T12:53:03Z</time>
      </trkpt>
      <trkpt lat="47.27462" lon="-1.65634">
        <ele>58</ele>
        <time>2023-11-13T12:53:23Z</time>
      </trkpt>
      <trkpt lat="47.27476" lon="-1.65649">
        <ele>59</ele>
        <time>2023-11-13T12:53:46Z</time>
      </trkpt>
      <trkpt lat="47.27482" lon="-1.65665">
        <ele>60</ele>
        <time>2023-11-13T12:54:03Z</time>
      </trkpt>
      <trkpt lat="47.27488" lon="-1.65688">
        <ele>61</ele>
        <time>2023-11-13T12:54:25Z</time>
      </trkpt>
      <trkpt lat="47.27492" lon="-1.65695">
        <ele>62</ele>
        <time>2023-11-13T12:54:33Z</time>
      </trkpt>
      <trkpt lat="47.27495" lon="-1.65702">
        <ele>62</ele>
        <time>2023-11-13T12:54:41Z</time>
      </trkpt>
      <trkpt lat="47.27509" lon="-1.65717">
        <ele>63</ele>
        <time>2023-11-13T12:55:04Z</time>
      </trkpt>
      <trkpt lat="47.27523" lon="-1.65739">
        <ele>63</ele>
        <time>2023-11-13T12:55:31Z</time>
      </trkpt>
      <trkpt lat="47.27535" lon="-1.65765">
        <ele>64</ele>
        <time>2023-11-13T12:56:00Z</time>
      </trkpt>
      <trkpt lat="47.27555" lon="-1.65794">
        <ele>64</ele>
        <time>2023-11-13T12:56:37Z</time>
      </trkpt>
      <trkpt lat="47.27559" lon="-1.65802">
        <ele>64</ele>
        <time>2023-11-13T12:56:46Z</time>
      </trkpt>
      <trkpt lat="47.27576" lon="-1.6582">
        <ele>64</ele>
        <time>2023-11-13T12:57:14Z</time>
      </trkpt>
      <trkpt lat="47.27594" lon="-1.65848">
        <ele>65</ele>
        <time>2023-11-13T12:57:49Z</time>
      </trkpt>
      <trkpt lat="47.27588" lon="-1.6586">
        <ele>65</ele>
        <time>2023-11-13T12:58:03Z</time>
      </trkpt>
      <trkpt lat="47.27554" lon="-1.65881">
        <ele>66</ele>
        <time>2023-11-13T12:58:52Z</time>
      </trkpt>
      <trkpt lat="47.27528" lon="-1.65898">
        <ele>66</ele>
        <time>2023-11-13T12:59:30Z</time>
      </trkpt>
      <trkpt lat="47.27499" lon="-1.65913">
        <ele>66</ele>
        <time>2023-11-13T13:00:11Z</time>
      </trkpt>
      <trkpt lat="47.2745" lon="-1.65941">
        <ele>65</ele>
        <time>2023-11-13T13:01:21Z</time>
      </trkpt>
      <trkpt lat="47.27445" lon="-1.6594">
        <ele>64</ele>
        <time>2023-11-13T13:01:28Z</time>
      </trkpt>
      <trkpt lat="47.27427" lon="-1.65906">
        <ele>64</ele>
        <time>2023-11-13T13:02:07Z</time>
      </trkpt>
      <trkpt lat="47.2741" lon="-1.65885">
        <ele>62</ele>
        <time>2023-11-13T13:02:36Z</time>
      </trkpt>
      <trkpt lat="47.27407" lon="-1.65874">
        <ele>62</ele>
        <time>2023-11-13T13:02:47Z</time>
      </trkpt>
      <trkpt lat="47.2739" lon="-1.6585">
        <ele>60</ele>
        <time>2023-11-13T13:03:18Z</time>
      </trkpt>
      <trkpt lat="47.27377" lon="-1.65831">
        <ele>59</ele>
        <time>2023-11-13T13:03:43Z</time>
      </trkpt>
      <trkpt lat="47.27375" lon="-1.65827">
        <ele>58</ele>
        <time>2023-11-13T13:03:47Z</time>
      </trkpt>
      <trkpt lat="47.27364" lon="-1.65806">
        <ele>58</ele>
        <time>2023-11-13T13:04:11Z</time>
      </trkpt>
      <trkpt lat="47.27354" lon="-1.65795">
        <ele>57</ele>
        <time>2023-11-13T13:04:28Z</time>
      </trkpt>
      <trkpt lat="47.27352" lon="-1.65791">
        <ele>57</ele>
        <time>2023-11-13T13:04:32Z</time>
      </trkpt>
      <trkpt lat="47.27349" lon="-1.65787">
        <ele>57</ele>
        <time>2023-11-13T13:04:38Z</time>
      </trkpt>
      <trkpt lat="47.27346" lon="-1.65784">
        <ele>57</ele>
        <time>2023-11-13T13:04:43Z</time>
      </trkpt>
      <trkpt lat="47.27341" lon="-1.65775">
        <ele>56</ele>
        <time>2023-11-13T13:04:53Z</time>
      </trkpt>
      <trkpt lat="47.27328" lon="-1.65757">
        <ele>56</ele>
        <time>2023-11-13T13:05:17Z</time>
      </trkpt>
      <trkpt lat="47.27314" lon="-1.6573">
        <ele>55</ele>
        <time>2023-11-13T13:05:48Z</time>
      </trkpt>
      <trkpt lat="47.27303" lon="-1.65713">
        <ele>55</ele>
        <time>2023-11-13T13:06:09Z</time>
      </trkpt>
      <trkpt lat="47.27249" lon="-1.65653">
        <ele>54</ele>
        <time>2023-11-13T13:07:39Z</time>
      </trkpt>
      <trkpt lat="47.27241" lon="-1.65643">
        <ele>53</ele>
        <time>2023-11-13T13:07:53Z</time>
      </trkpt>
      <trkpt lat="47.27237" lon="-1.65628">
        <ele>53</ele>
        <time>2023-11-13T13:08:08Z</time>
      </trkpt>
      <trkpt lat="47.27239" lon="-1.65624">
        <ele>53</ele>
        <time>2023-11-13T13:08:12Z</time>
      </trkpt>
      <trkpt lat="47.27239" lon="-1.65624">
        <ele>53</ele>
        <time>2023-11-13T13:08:12Z</time>
      </trkpt>
      <trkpt lat="47.27238" lon="-1.65628">
        <ele>53</ele>
        <time>2023-11-13T13:08:16Z</time>
      </trkpt>
      <trkpt lat="47.27236" lon="-1.65629">
        <ele>53</ele>
        <time>2023-11-13T13:08:19Z</time>
      </trkpt>
      <trkpt lat="47.27216" lon="-1.65643">
        <ele>53</ele>
        <time>2023-11-13T13:08:49Z</time>
      </trkpt>
      <trkpt lat="47.27213" lon="-1.65642">
        <ele>53</ele>
        <time>2023-11-13T13:08:53Z</time>
      </trkpt>
      <trkpt lat="47.27197" lon="-1.65643">
        <ele>52</ele>
        <time>2023-11-13T13:09:14Z</time>
      </trkpt>
      <trkpt lat="47.27192" lon="-1.6564">
        <ele>52</ele>
        <time>2023-11-13T13:09:21Z</time>
      </trkpt>
      <trkpt lat="47.27183" lon="-1.65639">
        <ele>52</ele>
        <time>2023-11-13T13:09:33Z</time>
      </trkpt>
      <trkpt lat="47.27181" lon="-1.6564">
        <ele>52</ele>
        <time>2023-11-13T13:09:36Z</time>
      </trkpt>
      <trkpt lat="47.27175" lon="-1.65638">
        <ele>52</ele>
        <time>2023-11-13T13:09:44Z</time>
      </trkpt>
      <trkpt lat="47.2717" lon="-1.65638">
        <ele>51</ele>
        <time>2023-11-13T13:09:51Z</time>
      </trkpt>
      <trkpt lat="47.27156" lon="-1.65639">
        <ele>51</ele>
        <time>2023-11-13T13:10:10Z</time>
      </trkpt>
      <trkpt lat="47.27149" lon="-1.65633">
        <ele>51</ele>
        <time>2023-11-13T13:10:21Z</time>
      </trkpt>
      <trkpt lat="47.27146" lon="-1.65632">
        <ele>51</ele>
        <time>2023-11-13T13:10:25Z</time>
      </trkpt>
      <trkpt lat="47.27136" lon="-1.65638">
        <ele>51</ele>
        <time>2023-11-13T13:10:39Z</time>
      </trkpt>
      <trkpt lat="47.27123" lon="-1.65642">
        <ele>50</ele>
        <time>2023-11-13T13:10:57Z</time>
      </trkpt>
      <trkpt lat="47.27104" lon="-1.65649">
        <ele>50</ele>
        <time>2023-11-13T13:11:23Z</time>
      </trkpt>
      <trkpt lat="47.27097" lon="-1.65647">
        <ele>50</ele>
        <time>2023-11-13T13:11:32Z</time>
      </trkpt>
      <trkpt lat="47.27082" lon="-1.65652">
        <ele>50</ele>
        <time>2023-11-13T13:11:53Z</time>
      </trkpt>
      <trkpt lat="47.27067" lon="-1.6566">
        <ele>49</ele>
        <time>2023-11-13T13:12:14Z</time>
      </trkpt>
      <trkpt lat="47.27051" lon="-1.6566">
        <ele>48</ele>
        <time>2023-11-13T13:12:36Z</time>
      </trkpt>
      <trkpt lat="47.27036" lon="-1.65651">
        <ele>48</ele>
        <time>2023-11-13T13:12:57Z</time>
      </trkpt>
      <trkpt lat="47.27027" lon="-1.65645">
        <ele>47</ele>
        <time>2023-11-13T13:13:10Z</time>
      </trkpt>
      <trkpt lat="47.27009" lon="-1.65646">
        <ele>46</ele>
        <time>2023-11-13T13:13:34Z</time>
      </trkpt>
      <trkpt lat="47.26986" lon="-1.65639">
        <ele>45</ele>
        <time>2023-11-13T13:14:06Z</time>
      </trkpt>
      <trkpt lat="47.26964" lon="-1.65641">
        <ele>44</ele>
        <time>2023-11-13T13:14:35Z</time>
      </trkpt>
      <trkpt lat="47.26945" lon="-1.65625">
        <ele>43</ele>
        <time>2023-11-13T13:15:04Z</time>
      </trkpt>
      <trkpt lat="47.26926" lon="-1.65623">
        <ele>42</ele>
        <time>2023-11-13T13:15:30Z</time>
      </trkpt>
      <trkpt lat="47.26911" lon="-1.65616">
        <ele>40</ele>
        <time>2023-11-13T13:15:51Z</time>
      </trkpt>
      <trkpt lat="47.26898" lon="-1.65606">
        <ele>38</ele>
        <time>2023-11-13T13:16:10Z</time>
      </trkpt>
      <trkpt lat="47.26885" lon="-1.65593">
        <ele>37</ele>
        <time>2023-11-13T13:16:31Z</time>
      </trkpt>
      <trkpt lat="47.26875" lon="-1.65575">
        <ele>35</ele>
        <time>2023-11-13T13:16:52Z</time>
      </trkpt>
      <trkpt lat="47.26866" lon="-1.65568">
        <ele>35</ele>
        <time>2023-11-13T13:17:06Z</time>
      </trkpt>
      <trkpt lat="47.26855" lon="-1.65549">
        <ele>33</ele>
        <time>2023-11-13T13:17:29Z</time>
      </trkpt>
      <trkpt lat="47.26839" lon="-1.65539">
        <ele>32</ele>
        <time>2023-11-13T13:17:52Z</time>
      </trkpt>
      <trkpt lat="47.26821" lon="-1.65533">
        <ele>32</ele>
        <time>2023-11-13T13:18:16Z</time>
      </trkpt>
      <trkpt lat="47.26807" lon="-1.65542">
        <ele>34</ele>
        <time>2023-11-13T13:18:37Z</time>
      </trkpt>
      <trkpt lat="47.26812" lon="-1.65542">
        <ele>33</ele>
        <time>2023-11-13T13:18:43Z</time>
      </trkpt>
      <trkpt lat="47.26831" lon="-1.65536">
        <ele>31</ele>
        <time>2023-11-13T13:19:09Z</time>
      </trkpt>
      <trkpt lat="47.26846" lon="-1.6554">
        <ele>32</ele>
        <time>2023-11-13T13:19:30Z</time>
      </trkpt>
      <trkpt lat="47.26846" lon="-1.65546">
        <ele>32</ele>
        <time>2023-11-13T13:19:35Z</time>
      </trkpt>
      <trkpt lat="47.26853" lon="-1.65573">
        <ele>33</ele>
        <time>2023-11-13T13:20:01Z</time>
      </trkpt>
      <trkpt lat="47.26864" lon="-1.6559">
        <ele>34</ele>
        <time>2023-11-13T13:20:23Z</time>
      </trkpt>
      <trkpt lat="47.26864" lon="-1.65594">
        <ele>34</ele>
        <time>2023-11-13T13:20:26Z</time>
      </trkpt>
      <trkpt lat="47.26865" lon="-1.65616">
        <ele>35</ele>
        <time>2023-11-13T13:20:46Z</time>
      </trkpt>
      <trkpt lat="47.26864" lon="-1.65619">
        <ele>35</ele>
        <time>2023-11-13T13:20:49Z</time>
      </trkpt>
      <trkpt lat="47.26855" lon="-1.65626">
        <ele>34</ele>
        <time>2023-11-13T13:21:03Z</time>
      </trkpt>
      <trkpt lat="47.26861" lon="-1.65648">
        <ele>35</ele>
        <time>2023-11-13T13:21:24Z</time>
      </trkpt>
      <trkpt lat="47.26859" lon="-1.6567">
        <ele>35</ele>
        <time>2023-11-13T13:21:44Z</time>
      </trkpt>
      <trkpt lat="47.26855" lon="-1.6569">
        <ele>36</ele>
        <time>2023-11-13T13:22:03Z</time>
      </trkpt>
      <trkpt lat="47.26851" lon="-1.657">
        <ele>37</ele>
        <time>2023-11-13T13:22:14Z</time>
      </trkpt>
      <trkpt lat="47.26843" lon="-1.65709">
        <ele>37</ele>
        <time>2023-11-13T13:22:27Z</time>
      </trkpt>
      <trkpt lat="47.26841" lon="-1.65718">
        <ele>38</ele>
        <time>2023-11-13T13:22:36Z</time>
      </trkpt>
      <trkpt lat="47.26836" lon="-1.6575">
        <ele>40</ele>
        <time>2023-11-13T13:23:05Z</time>
      </trkpt>
      <trkpt lat="47.26827" lon="-1.65766">
        <ele>41</ele>
        <time>2023-11-13T13:23:24Z</time>
      </trkpt>
      <trkpt lat="47.26823" lon="-1.65766">
        <ele>40</ele>
        <time>2023-11-13T13:23:30Z</time>
      </trkpt>
      <trkpt lat="47.26807" lon="-1.65761">
        <ele>39</ele>
        <time>2023-11-13T13:23:51Z</time>
      </trkpt>
      <trkpt lat="47.268" lon="-1.65769">
        <ele>39</ele>
        <time>2023-11-13T13:24:03Z</time>
      </trkpt>
      <trkpt lat="47.26792" lon="-1.65775">
        <ele>39</ele>
        <time>2023-11-13T13:24:15Z</time>
      </trkpt>
      <trkpt lat="47.26777" lon="-1.65802">
        <ele>40</ele>
        <time>2023-11-13T13:24:47Z</time>
      </trkpt>
      <trkpt lat="47.2677" lon="-1.65818">
        <ele>40</ele>
        <time>2023-11-13T13:25:04Z</time>
      </trkpt>
      <trkpt lat="47.26757" lon="-1.65828">
        <ele>40</ele>
        <time>2023-11-13T13:25:24Z</time>
      </trkpt>
      <trkpt lat="47.2675" lon="-1.65831">
        <ele>40</ele>
        <time>2023-11-13T13:25:33Z</time>
      </trkpt>
      <trkpt lat="47.26749" lon="-1.6583">
        <ele>40</ele>
        <time>2023-11-13T13:25:35Z</time>
      </trkpt>
      <trkpt lat="47.26742" lon="-1.65836">
        <ele>40</ele>
        <time>2023-11-13T13:25:46Z</time>
      </trkpt>
      <trkpt lat="47.26736" lon="-1.6584">
        <ele>41</ele>
        <time>2023-11-13T13:25:55Z</time>
      </trkpt>
      <trkpt lat="47.2672" lon="-1.65838">
        <ele>41</ele>
        <time>2023-11-13T13:26:16Z</time>
      </trkpt>
      <trkpt lat="47.26705" lon="-1.6585">
        <ele>42</ele>
        <time>2023-11-13T13:26:39Z</time>
      </trkpt>
      <trkpt lat="47.26687" lon="-1.65855">
        <ele>43</ele>
        <time>2023-11-13T13:27:03Z</time>
      </trkpt>
      <trkpt lat="47.26678" lon="-1.65862">
        <ele>44</ele>
        <time>2023-11-13T13:27:17Z</time>
      </trkpt>
      <trkpt lat="47.26653" lon="-1.65852">
        <ele>41</ele>
        <time>2023-11-13T13:27:51Z</time>
      </trkpt>
      <trkpt lat="47.2664" lon="-1.6586">
        <ele>41</ele>
        <time>2023-11-13T13:28:10Z</time>
      </trkpt>
      <trkpt lat="47.26621" lon="-1.65872">
        <ele>40</ele>
        <time>2023-11-13T13:28:38Z</time>
      </trkpt>
      <trkpt lat="47.26617" lon="-1.65891">
        <ele>41</ele>
        <time>2023-11-13T13:28:56Z</time>
      </trkpt>
      <trkpt lat="47.26622" lon="-1.65911">
        <ele>43</ele>
        <time>2023-11-13T13:29:15Z</time>
      </trkpt>
      <trkpt lat="47.26623" lon="-1.6593">
        <ele>43</ele>
        <time>2023-11-13T13:29:32Z</time>
      </trkpt>
      <trkpt lat="47.26605" lon="-1.65942">
        <ele>41</ele>
        <time>2023-11-13T13:29:59Z</time>
      </trkpt>
      <trkpt lat="47.26582" lon="-1.65947">
        <ele>38</ele>
        <time>2023-11-13T13:30:30Z</time>
      </trkpt>
      <trkpt lat="47.26572" lon="-1.6595">
        <ele>37</ele>
        <time>2023-11-13T13:30:43Z</time>
      </trkpt>
      <trkpt lat="47.26558" lon="-1.65955">
        <ele>36</ele>
        <time>2023-11-13T13:31:03Z</time>
      </trkpt>
      <trkpt lat="47.26539" lon="-1.6596">
        <ele>35</ele>
        <time>2023-11-13T13:31:28Z</time>
      </trkpt>
      <trkpt lat="47.26529" lon="-1.6597">
        <ele>34</ele>
        <time>2023-11-13T13:31:44Z</time>
      </trkpt>
      <trkpt lat="47.26525" lon="-1.6599">
        <ele>34</ele>
        <time>2023-11-13T13:32:03Z</time>
      </trkpt>
      <trkpt lat="47.26524" lon="-1.66009">
        <ele>34</ele>
        <time>2023-11-13T13:32:21Z</time>
      </trkpt>
      <trkpt lat="47.26536" lon="-1.66036">
        <ele>36</ele>
        <time>2023-11-13T13:32:50Z</time>
      </trkpt>
      <trkpt lat="47.26539" lon="-1.66039">
        <ele>36</ele>
        <time>2023-11-13T13:32:55Z</time>
      </trkpt>
      <trkpt lat="47.26554" lon="-1.66047">
        <ele>37</ele>
        <time>2023-11-13T13:33:16Z</time>
      </trkpt>
      <trkpt lat="47.26597" lon="-1.66062">
        <ele>40</ele>
        <time>2023-11-13T13:34:15Z</time>
      </trkpt>
      <trkpt lat="47.26627" lon="-1.66091">
        <ele>43</ele>
        <time>2023-11-13T13:35:03Z</time>
      </trkpt>
      <trkpt lat="47.26639" lon="-1.66132">
        <ele>43</ele>
        <time>2023-11-13T13:35:43Z</time>
      </trkpt>
      <trkpt lat="47.2663" lon="-1.66155">
        <ele>42</ele>
        <time>2023-11-13T13:36:07Z</time>
      </trkpt>
      <trkpt lat="47.26624" lon="-1.66146">
        <ele>42</ele>
        <time>2023-11-13T13:36:19Z</time>
      </trkpt>
      <trkpt lat="47.26612" lon="-1.66133">
        <ele>41</ele>
        <time>2023-11-13T13:36:39Z</time>
      </trkpt>
      <trkpt lat="47.26613" lon="-1.66131">
        <ele>41</ele>
        <time>2023-11-13T13:36:41Z</time>
      </trkpt>
      <trkpt lat="47.26605" lon="-1.66125">
        <ele>40</ele>
        <time>2023-11-13T13:36:53Z</time>
      </trkpt>
      <trkpt lat="47.26602" lon="-1.66126">
        <ele>40</ele>
        <time>2023-11-13T13:36:57Z</time>
      </trkpt>
      <trkpt lat="47.26587" lon="-1.66132">
        <ele>39</ele>
        <time>2023-11-13T13:37:18Z</time>
      </trkpt>
      <trkpt lat="47.26569" lon="-1.66154">
        <ele>38</ele>
        <time>2023-11-13T13:37:49Z</time>
      </trkpt>
      <trkpt lat="47.26546" lon="-1.66185">
        <ele>40</ele>
        <time>2023-11-13T13:38:30Z</time>
      </trkpt>
      <trkpt lat="47.26544" lon="-1.66189">
        <ele>40</ele>
        <time>2023-11-13T13:38:35Z</time>
      </trkpt>
      <trkpt lat="47.26528" lon="-1.66218">
        <ele>42</ele>
        <time>2023-11-13T13:39:09Z</time>
      </trkpt>
      <trkpt lat="47.26514" lon="-1.66236">
        <ele>44</ele>
        <time>2023-11-13T13:39:34Z</time>
      </trkpt>
      <trkpt lat="47.265" lon="-1.66252">
        <ele>46</ele>
        <time>2023-11-13T13:39:57Z</time>
      </trkpt>
      <trkpt lat="47.26496" lon="-1.66256">
        <ele>46</ele>
        <time>2023-11-13T13:40:04Z</time>
      </trkpt>
      <trkpt lat="47.26496" lon="-1.66266">
        <ele>46</ele>
        <time>2023-11-13T13:40:13Z</time>
      </trkpt>
      <trkpt lat="47.26501" lon="-1.663">
        <ele>46</ele>
        <time>2023-11-13T13:40:44Z</time>
      </trkpt>
      <trkpt lat="47.26499" lon="-1.66304">
        <ele>46</ele>
        <time>2023-11-13T13:40:49Z</time>
      </trkpt>
      <trkpt lat="47.26499" lon="-1.66318">
        <ele>46</ele>
        <time>2023-11-13T13:41:01Z</time>
      </trkpt>
      <trkpt lat="47.26493" lon="-1.66338">
        <ele>47</ele>
        <time>2023-11-13T13:41:21Z</time>
      </trkpt>
    </trkseg>
  </trk>
  <trk>
    <name><![CDATA[Sautron_ValleesCensEtChézine_10.2kmine-6690004]]></name>
    <extensions>
      <line xmlns="http://www.topografix.com/GPX/gpx_style/0/2">
        <color>00FFFF</color>
        <width>4</width>
      </line>
    </extensions>
    <trkseg>
      <trkpt lat="47.26526" lon="-1.67944">
        <ele>68</ele>
        <time>2023-11-13T11:10:55Z</time>
      </trkpt>
      <trkpt lat="47.26522" lon="-1.67942">
        <ele>68</ele>
        <time>2023-11-13T11:11:01Z</time>
      </trkpt>
      <trkpt lat="47.26477" lon="-1.67968">
        <ele>67</ele>
        <time>2023-11-13T11:12:05Z</time>
      </trkpt>
      <trkpt lat="47.26447" lon="-1.67989">
        <ele>67</ele>
        <time>2023-11-13T11:12:49Z</time>
      </trkpt>
      <trkpt lat="47.26436" lon="-1.67988">
        <ele>67</ele>
        <time>2023-11-13T11:13:04Z</time>
      </trkpt>
      <trkpt lat="47.2642" lon="-1.67955">
        <ele>67</ele>
        <time>2023-11-13T11:13:41Z</time>
      </trkpt>
      <trkpt lat="47.26398" lon="-1.6796">
        <ele>67</ele>
        <time>2023-11-13T11:14:11Z</time>
      </trkpt>
      <trkpt lat="47.26396" lon="-1.67993">
        <ele>67</ele>
        <time>2023-11-13T11:14:41Z</time>
      </trkpt>
      <trkpt lat="47.2638" lon="-1.68006">
        <ele>66</ele>
        <time>2023-11-13T11:15:05Z</time>
      </trkpt>
      <trkpt lat="47.26358" lon="-1.68029">
        <ele>66</ele>
        <time>2023-11-13T11:15:41Z</time>
      </trkpt>
      <trkpt lat="47.26342" lon="-1.68047">
        <ele>65</ele>
        <time>2023-11-13T11:16:08Z</time>
      </trkpt>
      <trkpt lat="47.26311" lon="-1.68079">
        <ele>65</ele>
        <time>2023-11-13T11:16:58Z</time>
      </trkpt>
      <trkpt lat="47.26277" lon="-1.68037">
        <ele>64</ele>
        <time>2023-11-13T11:17:58Z</time>
      </trkpt>
      <trkpt lat="47.26248" lon="-1.68009">
        <ele>64</ele>
        <time>2023-11-13T11:18:44Z</time>
      </trkpt>
      <trkpt lat="47.2623" lon="-1.67996">
        <ele>63</ele>
        <time>2023-11-13T11:19:11Z</time>
      </trkpt>
      <trkpt lat="47.26217" lon="-1.68028">
        <ele>63</ele>
        <time>2023-11-13T11:19:44Z</time>
      </trkpt>
      <trkpt lat="47.26189" lon="-1.68088">
        <ele>62</ele>
        <time>2023-11-13T11:20:50Z</time>
      </trkpt>
      <trkpt lat="47.2617" lon="-1.68135">
        <ele>61</ele>
        <time>2023-11-13T11:21:40Z</time>
      </trkpt>
      <trkpt lat="47.2615" lon="-1.68191">
        <ele>59</ele>
        <time>2023-11-13T11:22:37Z</time>
      </trkpt>
      <trkpt lat="47.26149" lon="-1.68194">
        <ele>59</ele>
        <time>2023-11-13T11:22:40Z</time>
      </trkpt>
      <trkpt lat="47.26132" lon="-1.68175">
        <ele>59</ele>
        <time>2023-11-13T11:23:09Z</time>
      </trkpt>
      <trkpt lat="47.26109" lon="-1.68158">
        <ele>58</ele>
        <time>2023-11-13T11:23:43Z</time>
      </trkpt>
      <trkpt lat="47.26087" lon="-1.68161">
        <ele>57</ele>
        <time>2023-11-13T11:24:12Z</time>
      </trkpt>
      <trkpt lat="47.26067" lon="-1.68165">
        <ele>57</ele>
        <time>2023-11-13T11:24:39Z</time>
      </trkpt>
      <trkpt lat="47.26047" lon="-1.68167">
        <ele>57</ele>
        <time>2023-11-13T11:25:06Z</time>
      </trkpt>
      <trkpt lat="47.26024" lon="-1.68149">
        <ele>57</ele>
        <time>2023-11-13T11:25:41Z</time>
      </trkpt>
      <trkpt lat="47.26007" lon="-1.68126">
        <ele>57</ele>
        <time>2023-11-13T11:26:12Z</time>
      </trkpt>
      <trkpt lat="47.25999" lon="-1.68109">
        <ele>57</ele>
        <time>2023-11-13T11:26:30Z</time>
      </trkpt>
      <trkpt lat="47.25975" lon="-1.68131">
        <ele>57</ele>
        <time>2023-11-13T11:27:08Z</time>
      </trkpt>
      <trkpt lat="47.25925" lon="-1.68172">
        <ele>56</ele>
        <time>2023-11-13T11:28:25Z</time>
      </trkpt>
      <trkpt lat="47.25895" lon="-1.68201">
        <ele>55</ele>
        <time>2023-11-13T11:29:12Z</time>
      </trkpt>
      <trkpt lat="47.25859" lon="-1.68226">
        <ele>54</ele>
        <time>2023-11-13T11:30:06Z</time>
      </trkpt>
      <trkpt lat="47.25823" lon="-1.68254">
        <ele>53</ele>
        <time>2023-11-13T11:31:00Z</time>
      </trkpt>
      <trkpt lat="47.25783" lon="-1.68291">
        <ele>51</ele>
        <time>2023-11-13T11:32:03Z</time>
      </trkpt>
      <trkpt lat="47.25744" lon="-1.68313">
        <ele>51</ele>
        <time>2023-11-13T11:32:59Z</time>
      </trkpt>
      <trkpt lat="47.25711" lon="-1.68333">
        <ele>51</ele>
        <time>2023-11-13T11:33:46Z</time>
      </trkpt>
      <trkpt lat="47.25683" lon="-1.6836">
        <ele>51</ele>
        <time>2023-11-13T11:34:31Z</time>
      </trkpt>
      <trkpt lat="47.25675" lon="-1.68331">
        <ele>52</ele>
        <time>2023-11-13T11:34:59Z</time>
      </trkpt>
      <trkpt lat="47.25667" lon="-1.68295">
        <ele>52</ele>
        <time>2023-11-13T11:35:34Z</time>
      </trkpt>
      <trkpt lat="47.25651" lon="-1.6826">
        <ele>52</ele>
        <time>2023-11-13T11:36:12Z</time>
      </trkpt>
      <trkpt lat="47.25634" lon="-1.68224">
        <ele>51</ele>
        <time>2023-11-13T11:36:51Z</time>
      </trkpt>
      <trkpt lat="47.25623" lon="-1.68167">
        <ele>51</ele>
        <time>2023-11-13T11:37:45Z</time>
      </trkpt>
      <trkpt lat="47.2561" lon="-1.68105">
        <ele>51</ele>
        <time>2023-11-13T11:38:44Z</time>
      </trkpt>
      <trkpt lat="47.25581" lon="-1.68044">
        <ele>51</ele>
        <time>2023-11-13T11:39:51Z</time>
      </trkpt>
      <trkpt lat="47.25568" lon="-1.67959">
        <ele>50</ele>
        <time>2023-11-13T11:41:10Z</time>
      </trkpt>
      <trkpt lat="47.25567" lon="-1.67894">
        <ele>49</ele>
        <time>2023-11-13T11:42:09Z</time>
      </trkpt>
      <trkpt lat="47.25565" lon="-1.67826">
        <ele>46</ele>
        <time>2023-11-13T11:43:11Z</time>
      </trkpt>
      <trkpt lat="47.25559" lon="-1.67787">
        <ele>45</ele>
        <time>2023-11-13T11:43:47Z</time>
      </trkpt>
      <trkpt lat="47.25545" lon="-1.6777">
        <ele>44</ele>
        <time>2023-11-13T11:44:11Z</time>
      </trkpt>
      <trkpt lat="47.25547" lon="-1.67673">
        <ele>43</ele>
        <time>2023-11-13T11:45:39Z</time>
      </trkpt>
      <trkpt lat="47.25534" lon="-1.6762">
        <ele>43</ele>
        <time>2023-11-13T11:46:30Z</time>
      </trkpt>
      <trkpt lat="47.25507" lon="-1.67468">
        <ele>42</ele>
        <time>2023-11-13T11:48:53Z</time>
      </trkpt>
      <trkpt lat="47.25498" lon="-1.67389">
        <ele>44</ele>
        <time>2023-11-13T11:50:05Z</time>
      </trkpt>
      <trkpt lat="47.25482" lon="-1.67365">
        <ele>45</ele>
        <time>2023-11-13T11:50:36Z</time>
      </trkpt>
      <trkpt lat="47.25453" lon="-1.67329">
        <ele>46</ele>
        <time>2023-11-13T11:51:26Z</time>
      </trkpt>
      <trkpt lat="47.25432" lon="-1.6734">
        <ele>45</ele>
        <time>2023-11-13T11:51:56Z</time>
      </trkpt>
      <trkpt lat="47.25427" lon="-1.67336">
        <ele>45</ele>
        <time>2023-11-13T11:52:03Z</time>
      </trkpt>
      <trkpt lat="47.25421" lon="-1.67325">
        <ele>45</ele>
        <time>2023-11-13T11:52:16Z</time>
      </trkpt>
      <trkpt lat="47.25416" lon="-1.67228">
        <ele>46</ele>
        <time>2023-11-13T11:53:44Z</time>
      </trkpt>
      <trkpt lat="47.25409" lon="-1.67097">
        <ele>48</ele>
        <time>2023-11-13T11:55:43Z</time>
      </trkpt>
      <trkpt lat="47.25399" lon="-1.6698">
        <ele>48</ele>
        <time>2023-11-13T11:57:30Z</time>
      </trkpt>
      <trkpt lat="47.25397" lon="-1.66889">
        <ele>47</ele>
        <time>2023-11-13T11:58:53Z</time>
      </trkpt>
      <trkpt lat="47.25413" lon="-1.66882">
        <ele>47</ele>
        <time>2023-11-13T11:59:15Z</time>
      </trkpt>
      <trkpt lat="47.25415" lon="-1.66872">
        <ele>46</ele>
        <time>2023-11-13T11:59:24Z</time>
      </trkpt>
      <trkpt lat="47.25363" lon="-1.66862">
        <ele>45</ele>
        <time>2023-11-13T12:00:34Z</time>
      </trkpt>
      <trkpt lat="47.25335" lon="-1.66855">
        <ele>45</ele>
        <time>2023-11-13T12:01:12Z</time>
      </trkpt>
      <trkpt lat="47.25336" lon="-1.66743">
        <ele>44</ele>
        <time>2023-11-13T12:02:54Z</time>
      </trkpt>
      <trkpt lat="47.25335" lon="-1.66673">
        <ele>42</ele>
        <time>2023-11-13T12:03:57Z</time>
      </trkpt>
      <trkpt lat="47.25334" lon="-1.66628">
        <ele>42</ele>
        <time>2023-11-13T12:04:38Z</time>
      </trkpt>
      <trkpt lat="47.25331" lon="-1.66583">
        <ele>42</ele>
        <time>2023-11-13T12:05:19Z</time>
      </trkpt>
      <trkpt lat="47.25327" lon="-1.66513">
        <ele>42</ele>
        <time>2023-11-13T12:06:23Z</time>
      </trkpt>
      <trkpt lat="47.25363" lon="-1.66501">
        <ele>43</ele>
        <time>2023-11-13T12:07:12Z</time>
      </trkpt>
      <trkpt lat="47.25383" lon="-1.66507">
        <ele>44</ele>
        <time>2023-11-13T12:07:39Z</time>
      </trkpt>
      <trkpt lat="47.25438" lon="-1.66486">
        <ele>46</ele>
        <time>2023-11-13T12:08:55Z</time>
      </trkpt>
      <trkpt lat="47.25488" lon="-1.66405">
        <ele>48</ele>
        <time>2023-11-13T12:10:34Z</time>
      </trkpt>
      <trkpt lat="47.25483" lon="-1.66384">
        <ele>48</ele>
        <time>2023-11-13T12:10:54Z</time>
      </trkpt>
      <trkpt lat="47.25446" lon="-1.6632">
        <ele>47</ele>
        <time>2023-11-13T12:12:10Z</time>
      </trkpt>
      <trkpt lat="47.25397" lon="-1.66234">
        <ele>46</ele>
        <time>2023-11-13T12:13:52Z</time>
      </trkpt>
      <trkpt lat="47.25364" lon="-1.66175">
        <ele>46</ele>
        <time>2023-11-13T12:15:01Z</time>
      </trkpt>
      <trkpt lat="47.25358" lon="-1.6615">
        <ele>46</ele>
        <time>2023-11-13T12:15:25Z</time>
      </trkpt>
      <trkpt lat="47.25358" lon="-1.66036">
        <ele>46</ele>
        <time>2023-11-13T12:17:09Z</time>
      </trkpt>
      <trkpt lat="47.25363" lon="-1.65944">
        <ele>47</ele>
        <time>2023-11-13T12:18:32Z</time>
      </trkpt>
      <trkpt lat="47.25366" lon="-1.65874">
        <ele>46</ele>
        <time>2023-11-13T12:19:36Z</time>
      </trkpt>
      <trkpt lat="47.25373" lon="-1.65806">
        <ele>46</ele>
        <time>2023-11-13T12:20:38Z</time>
      </trkpt>
      <trkpt lat="47.25382" lon="-1.65788">
        <ele>46</ele>
        <time>2023-11-13T12:20:58Z</time>
      </trkpt>
      <trkpt lat="47.25385" lon="-1.65775">
        <ele>46</ele>
        <time>2023-11-13T12:21:11Z</time>
      </trkpt>
      <trkpt lat="47.25392" lon="-1.65766">
        <ele>46</ele>
        <time>2023-11-13T12:21:23Z</time>
      </trkpt>
      <trkpt lat="47.254" lon="-1.65792">
        <ele>46</ele>
        <time>2023-11-13T12:21:49Z</time>
      </trkpt>
      <trkpt lat="47.25423" lon="-1.65825">
        <ele>45</ele>
        <time>2023-11-13T12:22:32Z</time>
      </trkpt>
      <trkpt lat="47.25484" lon="-1.65847">
        <ele>48</ele>
        <time>2023-11-13T12:23:56Z</time>
      </trkpt>
      <trkpt lat="47.25536" lon="-1.65851">
        <ele>51</ele>
        <time>2023-11-13T12:25:05Z</time>
      </trkpt>
      <trkpt lat="47.25567" lon="-1.65881">
        <ele>52</ele>
        <time>2023-11-13T12:25:55Z</time>
      </trkpt>
      <trkpt lat="47.25599" lon="-1.65916">
        <ele>54</ele>
        <time>2023-11-13T12:26:48Z</time>
      </trkpt>
      <trkpt lat="47.25631" lon="-1.65949">
        <ele>55</ele>
        <time>2023-11-13T12:27:40Z</time>
      </trkpt>
      <trkpt lat="47.25687" lon="-1.66007">
        <ele>56</ele>
        <time>2023-11-13T12:29:11Z</time>
      </trkpt>
      <trkpt lat="47.25722" lon="-1.6593">
        <ele>58</ele>
        <time>2023-11-13T12:30:35Z</time>
      </trkpt>
      <trkpt lat="47.25771" lon="-1.65834">
        <ele>59</ele>
        <time>2023-11-13T12:32:24Z</time>
      </trkpt>
      <trkpt lat="47.25826" lon="-1.65728">
        <ele>62</ele>
        <time>2023-11-13T12:34:25Z</time>
      </trkpt>
      <trkpt lat="47.25863" lon="-1.65655">
        <ele>63</ele>
        <time>2023-11-13T12:35:47Z</time>
      </trkpt>
      <trkpt lat="47.25919" lon="-1.65534">
        <ele>64</ele>
        <time>2023-11-13T12:38:00Z</time>
      </trkpt>
      <trkpt lat="47.25949" lon="-1.65473">
        <ele>65</ele>
        <time>2023-11-13T12:39:08Z</time>
      </trkpt>
      <trkpt lat="47.25948" lon="-1.65454">
        <ele>65</ele>
        <time>2023-11-13T12:39:25Z</time>
      </trkpt>
      <trkpt lat="47.26033" lon="-1.6545">
        <ele>67</ele>
        <time>2023-11-13T12:41:19Z</time>
      </trkpt>
      <trkpt lat="47.26023" lon="-1.65423">
        <ele>66</ele>
        <time>2023-11-13T12:41:47Z</time>
      </trkpt>
      <trkpt lat="47.26013" lon="-1.65394">
        <ele>66</ele>
        <time>2023-11-13T12:42:16Z</time>
      </trkpt>
      <trkpt lat="47.26003" lon="-1.65361">
        <ele>66</ele>
        <time>2023-11-13T12:42:49Z</time>
      </trkpt>
      <trkpt lat="47.25997" lon="-1.65355">
        <ele>66</ele>
        <time>2023-11-13T12:42:59Z</time>
      </trkpt>
      <trkpt lat="47.26017" lon="-1.65317">
        <ele>66</ele>
        <time>2023-11-13T12:43:42Z</time>
      </trkpt>
      <trkpt lat="47.26022" lon="-1.65295">
        <ele>66</ele>
        <time>2023-11-13T12:44:03Z</time>
      </trkpt>
      <trkpt lat="47.26136" lon="-1.65252">
        <ele>66</ele>
        <time>2023-11-13T12:46:40Z</time>
      </trkpt>
      <trkpt lat="47.26203" lon="-1.65225">
        <ele>66</ele>
        <time>2023-11-13T12:48:13Z</time>
      </trkpt>
      <trkpt lat="47.26218" lon="-1.65229">
        <ele>66</ele>
        <time>2023-11-13T12:48:33Z</time>
      </trkpt>
      <trkpt lat="47.26232" lon="-1.65239">
        <ele>66</ele>
        <time>2023-11-13T12:48:54Z</time>
      </trkpt>
      <trkpt lat="47.26291" lon="-1.65227">
        <ele>65</ele>
        <time>2023-11-13T12:50:13Z</time>
      </trkpt>
      <trkpt lat="47.26341" lon="-1.6522">
        <ele>64</ele>
        <time>2023-11-13T12:51:20Z</time>
      </trkpt>
      <trkpt lat="47.26419" lon="-1.65232">
        <ele>62</ele>
        <time>2023-11-13T12:53:05Z</time>
      </trkpt>
      <trkpt lat="47.26487" lon="-1.65243">
        <ele>60</ele>
        <time>2023-11-13T12:54:36Z</time>
      </trkpt>
      <trkpt lat="47.26531" lon="-1.65252">
        <ele>59</ele>
        <time>2023-11-13T12:55:36Z</time>
      </trkpt>
      <trkpt lat="47.2657" lon="-1.65255">
        <ele>58</ele>
        <time>2023-11-13T12:56:28Z</time>
      </trkpt>
      <trkpt lat="47.26596" lon="-1.65265">
        <ele>56</ele>
        <time>2023-11-13T12:57:04Z</time>
      </trkpt>
      <trkpt lat="47.26624" lon="-1.65283">
        <ele>53</ele>
        <time>2023-11-13T12:57:44Z</time>
      </trkpt>
      <trkpt lat="47.26659" lon="-1.65306">
        <ele>50</ele>
        <time>2023-11-13T12:58:36Z</time>
      </trkpt>
      <trkpt lat="47.26685" lon="-1.65322">
        <ele>46</ele>
        <time>2023-11-13T12:59:13Z</time>
      </trkpt>
      <trkpt lat="47.26718" lon="-1.65342">
        <ele>43</ele>
        <time>2023-11-13T13:00:01Z</time>
      </trkpt>
      <trkpt lat="47.26739" lon="-1.65353">
        <ele>41</ele>
        <time>2023-11-13T13:00:31Z</time>
      </trkpt>
      <trkpt lat="47.26756" lon="-1.65387">
        <ele>40</ele>
        <time>2023-11-13T13:01:09Z</time>
      </trkpt>
      <trkpt lat="47.26759" lon="-1.65412">
        <ele>40</ele>
        <time>2023-11-13T13:01:32Z</time>
      </trkpt>
      <trkpt lat="47.26764" lon="-1.65459">
        <ele>39</ele>
        <time>2023-11-13T13:02:15Z</time>
      </trkpt>
      <trkpt lat="47.26768" lon="-1.65523">
        <ele>38</ele>
        <time>2023-11-13T13:03:13Z</time>
      </trkpt>
      <trkpt lat="47.26779" lon="-1.65541">
        <ele>36</ele>
        <time>2023-11-13T13:03:35Z</time>
      </trkpt>
      <trkpt lat="47.26767" lon="-1.65556">
        <ele>37</ele>
        <time>2023-11-13T13:03:56Z</time>
      </trkpt>
      <trkpt lat="47.26734" lon="-1.65602">
        <ele>38</ele>
        <time>2023-11-13T13:04:57Z</time>
      </trkpt>
      <trkpt lat="47.26718" lon="-1.65606">
        <ele>40</ele>
        <time>2023-11-13T13:05:18Z</time>
      </trkpt>
      <trkpt lat="47.26702" lon="-1.65618">
        <ele>41</ele>
        <time>2023-11-13T13:05:42Z</time>
      </trkpt>
      <trkpt lat="47.26679" lon="-1.65625">
        <ele>43</ele>
        <time>2023-11-13T13:06:14Z</time>
      </trkpt>
      <trkpt lat="47.26661" lon="-1.65621">
        <ele>44</ele>
        <time>2023-11-13T13:06:38Z</time>
      </trkpt>
      <trkpt lat="47.26638" lon="-1.65613">
        <ele>45</ele>
        <time>2023-11-13T13:07:09Z</time>
      </trkpt>
      <trkpt lat="47.26608" lon="-1.65603">
        <ele>46</ele>
        <time>2023-11-13T13:07:50Z</time>
      </trkpt>
      <trkpt lat="47.26585" lon="-1.65595">
        <ele>47</ele>
        <time>2023-11-13T13:08:22Z</time>
      </trkpt>
      <trkpt lat="47.26584" lon="-1.65639">
        <ele>45</ele>
        <time>2023-11-13T13:09:02Z</time>
      </trkpt>
      <trkpt lat="47.26584" lon="-1.65713">
        <ele>43</ele>
        <time>2023-11-13T13:10:09Z</time>
      </trkpt>
      <trkpt lat="47.26544" lon="-1.65731">
        <ele>43</ele>
        <time>2023-11-13T13:11:05Z</time>
      </trkpt>
      <trkpt lat="47.26527" lon="-1.65738">
        <ele>43</ele>
        <time>2023-11-13T13:11:28Z</time>
      </trkpt>
      <trkpt lat="47.26516" lon="-1.65747">
        <ele>43</ele>
        <time>2023-11-13T13:11:45Z</time>
      </trkpt>
      <trkpt lat="47.2651" lon="-1.65766">
        <ele>42</ele>
        <time>2023-11-13T13:12:04Z</time>
      </trkpt>
      <trkpt lat="47.26502" lon="-1.65781">
        <ele>41</ele>
        <time>2023-11-13T13:12:21Z</time>
      </trkpt>
      <trkpt lat="47.2651" lon="-1.65857">
        <ele>36</ele>
        <time>2023-11-13T13:13:31Z</time>
      </trkpt>
      <trkpt lat="47.26512" lon="-1.65883">
        <ele>34</ele>
        <time>2023-11-13T13:13:55Z</time>
      </trkpt>
      <trkpt lat="47.26506" lon="-1.65885">
        <ele>34</ele>
        <time>2023-11-13T13:14:03Z</time>
      </trkpt>
      <trkpt lat="47.26511" lon="-1.65911">
        <ele>33</ele>
        <time>2023-11-13T13:14:27Z</time>
      </trkpt>
      <trkpt lat="47.26516" lon="-1.65929">
        <ele>33</ele>
        <time>2023-11-13T13:14:45Z</time>
      </trkpt>
      <trkpt lat="47.26525" lon="-1.65961">
        <ele>34</ele>
        <time>2023-11-13T13:15:16Z</time>
      </trkpt>
      <trkpt lat="47.26526" lon="-1.66016">
        <ele>35</ele>
        <time>2023-11-13T13:16:06Z</time>
      </trkpt>
      <trkpt lat="47.26536" lon="-1.66037">
        <ele>36</ele>
        <time>2023-11-13T13:16:29Z</time>
      </trkpt>
      <trkpt lat="47.26549" lon="-1.6605">
        <ele>37</ele>
        <time>2023-11-13T13:16:50Z</time>
      </trkpt>
      <trkpt lat="47.26569" lon="-1.66057">
        <ele>38</ele>
        <time>2023-11-13T13:17:18Z</time>
      </trkpt>
      <trkpt lat="47.26612" lon="-1.66079">
        <ele>42</ele>
        <time>2023-11-13T13:18:18Z</time>
      </trkpt>
      <trkpt lat="47.26634" lon="-1.66115">
        <ele>43</ele>
        <time>2023-11-13T13:19:02Z</time>
      </trkpt>
      <trkpt lat="47.2664" lon="-1.66163">
        <ele>43</ele>
        <time>2023-11-13T13:19:47Z</time>
      </trkpt>
      <trkpt lat="47.26629" lon="-1.66171">
        <ele>42</ele>
        <time>2023-11-13T13:20:03Z</time>
      </trkpt>
      <trkpt lat="47.26608" lon="-1.6618">
        <ele>40</ele>
        <time>2023-11-13T13:20:32Z</time>
      </trkpt>
      <trkpt lat="47.2661" lon="-1.6619">
        <ele>40</ele>
        <time>2023-11-13T13:20:42Z</time>
      </trkpt>
      <trkpt lat="47.26614" lon="-1.66209">
        <ele>41</ele>
        <time>2023-11-13T13:21:00Z</time>
      </trkpt>
      <trkpt lat="47.266" lon="-1.66248">
        <ele>40</ele>
        <time>2023-11-13T13:21:40Z</time>
      </trkpt>
      <trkpt lat="47.26607" lon="-1.66268">
        <ele>40</ele>
        <time>2023-11-13T13:22:00Z</time>
      </trkpt>
      <trkpt lat="47.26615" lon="-1.663">
        <ele>40</ele>
        <time>2023-11-13T13:22:31Z</time>
      </trkpt>
      <trkpt lat="47.26623" lon="-1.66338">
        <ele>40</ele>
        <time>2023-11-13T13:23:07Z</time>
      </trkpt>
      <trkpt lat="47.26638" lon="-1.66397">
        <ele>41</ele>
        <time>2023-11-13T13:24:04Z</time>
      </trkpt>
      <trkpt lat="47.26656" lon="-1.66454">
        <ele>42</ele>
        <time>2023-11-13T13:25:01Z</time>
      </trkpt>
      <trkpt lat="47.26668" lon="-1.66486">
        <ele>43</ele>
        <time>2023-11-13T13:25:34Z</time>
      </trkpt>
      <trkpt lat="47.26671" lon="-1.6653">
        <ele>45</ele>
        <time>2023-11-13T13:26:14Z</time>
      </trkpt>
      <trkpt lat="47.26671" lon="-1.66556">
        <ele>46</ele>
        <time>2023-11-13T13:26:37Z</time>
      </trkpt>
      <trkpt lat="47.26684" lon="-1.66585">
        <ele>47</ele>
        <time>2023-11-13T13:27:09Z</time>
      </trkpt>
      <trkpt lat="47.26721" lon="-1.66622">
        <ele>45</ele>
        <time>2023-11-13T13:28:09Z</time>
      </trkpt>
      <trkpt lat="47.26721" lon="-1.66607">
        <ele>44</ele>
        <time>2023-11-13T13:28:22Z</time>
      </trkpt>
      <trkpt lat="47.26739" lon="-1.66602">
        <ele>43</ele>
        <time>2023-11-13T13:28:47Z</time>
      </trkpt>
      <trkpt lat="47.26763" lon="-1.66604">
        <ele>43</ele>
        <time>2023-11-13T13:29:19Z</time>
      </trkpt>
      <trkpt lat="47.26773" lon="-1.66626">
        <ele>44</ele>
        <time>2023-11-13T13:29:43Z</time>
      </trkpt>
      <trkpt lat="47.26782" lon="-1.66655">
        <ele>45</ele>
        <time>2023-11-13T13:30:12Z</time>
      </trkpt>
      <trkpt lat="47.26793" lon="-1.66677">
        <ele>45</ele>
        <time>2023-11-13T13:30:36Z</time>
      </trkpt>
      <trkpt lat="47.26808" lon="-1.66709">
        <ele>43</ele>
        <time>2023-11-13T13:31:12Z</time>
      </trkpt>
      <trkpt lat="47.26818" lon="-1.66732">
        <ele>41</ele>
        <time>2023-11-13T13:31:36Z</time>
      </trkpt>
      <trkpt lat="47.26844" lon="-1.66765">
        <ele>40</ele>
        <time>2023-11-13T13:32:22Z</time>
      </trkpt>
      <trkpt lat="47.26887" lon="-1.66789">
        <ele>42</ele>
        <time>2023-11-13T13:33:23Z</time>
      </trkpt>
      <trkpt lat="47.26911" lon="-1.66824">
        <ele>41</ele>
        <time>2023-11-13T13:34:08Z</time>
      </trkpt>
      <trkpt lat="47.26925" lon="-1.66859">
        <ele>42</ele>
        <time>2023-11-13T13:34:45Z</time>
      </trkpt>
      <trkpt lat="47.26932" lon="-1.66895">
        <ele>43</ele>
        <time>2023-11-13T13:35:19Z</time>
      </trkpt>
      <trkpt lat="47.26929" lon="-1.66954">
        <ele>42</ele>
        <time>2023-11-13T13:36:13Z</time>
      </trkpt>
      <trkpt lat="47.26916" lon="-1.67">
        <ele>40</ele>
        <time>2023-11-13T13:36:58Z</time>
      </trkpt>
      <trkpt lat="47.26912" lon="-1.6704">
        <ele>41</ele>
        <time>2023-11-13T13:37:34Z</time>
      </trkpt>
      <trkpt lat="47.26906" lon="-1.67095">
        <ele>42</ele>
        <time>2023-11-13T13:38:25Z</time>
      </trkpt>
      <trkpt lat="47.26898" lon="-1.6713">
        <ele>41</ele>
        <time>2023-11-13T13:38:58Z</time>
      </trkpt>
      <trkpt lat="47.26885" lon="-1.67134">
        <ele>41</ele>
        <time>2023-11-13T13:39:16Z</time>
      </trkpt>
      <trkpt lat="47.26858" lon="-1.67145">
        <ele>40</ele>
        <time>2023-11-13T13:39:53Z</time>
      </trkpt>
      <trkpt lat="47.26837" lon="-1.67137">
        <ele>40</ele>
        <time>2023-11-13T13:40:22Z</time>
      </trkpt>
      <trkpt lat="47.26858" lon="-1.67163">
        <ele>40</ele>
        <time>2023-11-13T13:40:59Z</time>
      </trkpt>
      <trkpt lat="47.26889" lon="-1.67185">
        <ele>40</ele>
        <time>2023-11-13T13:41:45Z</time>
      </trkpt>
      <trkpt lat="47.26925" lon="-1.67193">
        <ele>41</ele>
        <time>2023-11-13T13:42:34Z</time>
      </trkpt>
      <trkpt lat="47.26968" lon="-1.67182">
        <ele>41</ele>
        <time>2023-11-13T13:43:32Z</time>
      </trkpt>
      <trkpt lat="47.27002" lon="-1.67166">
        <ele>42</ele>
        <time>2023-11-13T13:44:19Z</time>
      </trkpt>
      <trkpt lat="47.27032" lon="-1.67167">
        <ele>44</ele>
        <time>2023-11-13T13:44:59Z</time>
      </trkpt>
      <trkpt lat="47.27072" lon="-1.67168">
        <ele>46</ele>
        <time>2023-11-13T13:45:53Z</time>
      </trkpt>
      <trkpt lat="47.27101" lon="-1.67185">
        <ele>47</ele>
        <time>2023-11-13T13:46:34Z</time>
      </trkpt>
      <trkpt lat="47.27115" lon="-1.67207">
        <ele>46</ele>
        <time>2023-11-13T13:47:02Z</time>
      </trkpt>
      <trkpt lat="47.27129" lon="-1.67229">
        <ele>45</ele>
        <time>2023-11-13T13:47:29Z</time>
      </trkpt>
      <trkpt lat="47.27137" lon="-1.67259">
        <ele>44</ele>
        <time>2023-11-13T13:47:58Z</time>
      </trkpt>
      <trkpt lat="47.27141" lon="-1.67295">
        <ele>43</ele>
        <time>2023-11-13T13:48:31Z</time>
      </trkpt>
      <trkpt lat="47.27129" lon="-1.67329">
        <ele>41</ele>
        <time>2023-11-13T13:49:06Z</time>
      </trkpt>
      <trkpt lat="47.27114" lon="-1.6736">
        <ele>41</ele>
        <time>2023-11-13T13:49:40Z</time>
      </trkpt>
      <trkpt lat="47.27096" lon="-1.67362">
        <ele>40</ele>
        <time>2023-11-13T13:50:05Z</time>
      </trkpt>
      <trkpt lat="47.27069" lon="-1.67359">
        <ele>39</ele>
        <time>2023-11-13T13:50:41Z</time>
      </trkpt>
      <trkpt lat="47.27067" lon="-1.67373">
        <ele>40</ele>
        <time>2023-11-13T13:50:54Z</time>
      </trkpt>
      <trkpt lat="47.27066" lon="-1.67401">
        <ele>41</ele>
        <time>2023-11-13T13:51:19Z</time>
      </trkpt>
      <trkpt lat="47.2707" lon="-1.6743">
        <ele>42</ele>
        <time>2023-11-13T13:51:46Z</time>
      </trkpt>
      <trkpt lat="47.27071" lon="-1.67456">
        <ele>42</ele>
        <time>2023-11-13T13:52:09Z</time>
      </trkpt>
      <trkpt lat="47.27071" lon="-1.67489">
        <ele>42</ele>
        <time>2023-11-13T13:52:39Z</time>
      </trkpt>
      <trkpt lat="47.27072" lon="-1.67528">
        <ele>43</ele>
        <time>2023-11-13T13:53:15Z</time>
      </trkpt>
      <trkpt lat="47.27083" lon="-1.67568">
        <ele>43</ele>
        <time>2023-11-13T13:53:54Z</time>
      </trkpt>
      <trkpt lat="47.27083" lon="-1.67571">
        <ele>44</ele>
        <time>2023-11-13T13:53:56Z</time>
      </trkpt>
      <trkpt lat="47.27099" lon="-1.67618">
        <ele>46</ele>
        <time>2023-11-13T13:54:44Z</time>
      </trkpt>
      <trkpt lat="47.27102" lon="-1.67664">
        <ele>49</ele>
        <time>2023-11-13T13:55:26Z</time>
      </trkpt>
      <trkpt lat="47.27107" lon="-1.67702">
        <ele>48</ele>
        <time>2023-11-13T13:56:01Z</time>
      </trkpt>
      <trkpt lat="47.27103" lon="-1.67747">
        <ele>49</ele>
        <time>2023-11-13T13:56:42Z</time>
      </trkpt>
      <trkpt lat="47.27086" lon="-1.67785">
        <ele>48</ele>
        <time>2023-11-13T13:57:23Z</time>
      </trkpt>
      <trkpt lat="47.27076" lon="-1.67838">
        <ele>46</ele>
        <time>2023-11-13T13:58:13Z</time>
      </trkpt>
      <trkpt lat="47.27057" lon="-1.67874">
        <ele>49</ele>
        <time>2023-11-13T13:58:54Z</time>
      </trkpt>
      <trkpt lat="47.27048" lon="-1.67909">
        <ele>50</ele>
        <time>2023-11-13T13:59:28Z</time>
      </trkpt>
      <trkpt lat="47.27044" lon="-1.67951">
        <ele>50</ele>
        <time>2023-11-13T14:00:07Z</time>
      </trkpt>
      <trkpt lat="47.27045" lon="-1.68009">
        <ele>49</ele>
        <time>2023-11-13T14:00:59Z</time>
      </trkpt>
      <trkpt lat="47.27042" lon="-1.68046">
        <ele>50</ele>
        <time>2023-11-13T14:01:33Z</time>
      </trkpt>
      <trkpt lat="47.27054" lon="-1.68082">
        <ele>48</ele>
        <time>2023-11-13T14:02:09Z</time>
      </trkpt>
      <trkpt lat="47.27064" lon="-1.68106">
        <ele>47</ele>
        <time>2023-11-13T14:02:35Z</time>
      </trkpt>
      <trkpt lat="47.27074" lon="-1.68143">
        <ele>47</ele>
        <time>2023-11-13T14:03:11Z</time>
      </trkpt>
      <trkpt lat="47.27066" lon="-1.68176">
        <ele>49</ele>
        <time>2023-11-13T14:03:43Z</time>
      </trkpt>
      <trkpt lat="47.27083" lon="-1.682">
        <ele>47</ele>
        <time>2023-11-13T14:04:14Z</time>
      </trkpt>
      <trkpt lat="47.271" lon="-1.68223">
        <ele>46</ele>
        <time>2023-11-13T14:04:45Z</time>
      </trkpt>
      <trkpt lat="47.27124" lon="-1.68252">
        <ele>46</ele>
        <time>2023-11-13T14:05:26Z</time>
      </trkpt>
      <trkpt lat="47.27137" lon="-1.68275">
        <ele>47</ele>
        <time>2023-11-13T14:05:53Z</time>
      </trkpt>
      <trkpt lat="47.27154" lon="-1.683">
        <ele>49</ele>
        <time>2023-11-13T14:06:25Z</time>
      </trkpt>
      <trkpt lat="47.27166" lon="-1.68327">
        <ele>50</ele>
        <time>2023-11-13T14:06:55Z</time>
      </trkpt>
      <trkpt lat="47.2718" lon="-1.68366">
        <ele>52</ele>
        <time>2023-11-13T14:07:35Z</time>
      </trkpt>
      <trkpt lat="47.27194" lon="-1.68398">
        <ele>53</ele>
        <time>2023-11-13T14:08:09Z</time>
      </trkpt>
      <trkpt lat="47.27209" lon="-1.68425">
        <ele>55</ele>
        <time>2023-11-13T14:08:41Z</time>
      </trkpt>
      <trkpt lat="47.27191" lon="-1.68468">
        <ele>56</ele>
        <time>2023-11-13T14:09:26Z</time>
      </trkpt>
      <trkpt lat="47.27175" lon="-1.68497">
        <ele>57</ele>
        <time>2023-11-13T14:10:00Z</time>
      </trkpt>
      <trkpt lat="47.27122" lon="-1.6851">
        <ele>58</ele>
        <time>2023-11-13T14:11:12Z</time>
      </trkpt>
      <trkpt lat="47.27095" lon="-1.68513">
        <ele>59</ele>
        <time>2023-11-13T14:11:48Z</time>
      </trkpt>
      <trkpt lat="47.27098" lon="-1.68552">
        <ele>61</ele>
        <time>2023-11-13T14:12:24Z</time>
      </trkpt>
      <trkpt lat="47.27074" lon="-1.6862">
        <ele>64</ele>
        <time>2023-11-13T14:13:33Z</time>
      </trkpt>
      <trkpt lat="47.27084" lon="-1.6864">
        <ele>65</ele>
        <time>2023-11-13T14:13:55Z</time>
      </trkpt>
      <trkpt lat="47.27099" lon="-1.68666">
        <ele>65</ele>
        <time>2023-11-13T14:14:26Z</time>
      </trkpt>
      <trkpt lat="47.27111" lon="-1.6869">
        <ele>65</ele>
        <time>2023-11-13T14:14:53Z</time>
      </trkpt>
      <trkpt lat="47.2711" lon="-1.68713">
        <ele>65</ele>
        <time>2023-11-13T14:15:14Z</time>
      </trkpt>
      <trkpt lat="47.27097" lon="-1.68743">
        <ele>66</ele>
        <time>2023-11-13T14:15:46Z</time>
      </trkpt>
      <trkpt lat="47.27083" lon="-1.68774">
        <ele>66</ele>
        <time>2023-11-13T14:16:20Z</time>
      </trkpt>
      <trkpt lat="47.27067" lon="-1.68758">
        <ele>67</ele>
        <time>2023-11-13T14:16:46Z</time>
      </trkpt>
      <trkpt lat="47.27041" lon="-1.68729">
        <ele>67</ele>
        <time>2023-11-13T14:17:29Z</time>
      </trkpt>
      <trkpt lat="47.26982" lon="-1.68702">
        <ele>67</ele>
        <time>2023-11-13T14:18:52Z</time>
      </trkpt>
      <trkpt lat="47.26932" lon="-1.68678">
        <ele>66</ele>
        <time>2023-11-13T14:20:02Z</time>
      </trkpt>
      <trkpt lat="47.26893" lon="-1.68656">
        <ele>66</ele>
        <time>2023-11-13T14:20:58Z</time>
      </trkpt>
      <trkpt lat="47.26864" lon="-1.68619">
        <ele>67</ele>
        <time>2023-11-13T14:21:49Z</time>
      </trkpt>
      <trkpt lat="47.26829" lon="-1.6857">
        <ele>68</ele>
        <time>2023-11-13T14:22:53Z</time>
      </trkpt>
      <trkpt lat="47.26804" lon="-1.68536">
        <ele>68</ele>
        <time>2023-11-13T14:23:39Z</time>
      </trkpt>
      <trkpt lat="47.26766" lon="-1.6848">
        <ele>68</ele>
        <time>2023-11-13T14:24:51Z</time>
      </trkpt>
      <trkpt lat="47.26733" lon="-1.68401">
        <ele>68</ele>
        <time>2023-11-13T14:26:15Z</time>
      </trkpt>
      <trkpt lat="47.26707" lon="-1.68347">
        <ele>67</ele>
        <time>2023-11-13T14:27:15Z</time>
      </trkpt>
      <trkpt lat="47.26684" lon="-1.6827">
        <ele>67</ele>
        <time>2023-11-13T14:28:31Z</time>
      </trkpt>
      <trkpt lat="47.26653" lon="-1.68183">
        <ele>69</ele>
        <time>2023-11-13T14:30:00Z</time>
      </trkpt>
      <trkpt lat="47.2661" lon="-1.68054">
        <ele>69</ele>
        <time>2023-11-13T14:32:10Z</time>
      </trkpt>
      <trkpt lat="47.26568" lon="-1.6792">
        <ele>67</ele>
        <time>2023-11-13T14:34:23Z</time>
      </trkpt>
      <trkpt lat="47.26529" lon="-1.67942">
        <ele>68</ele>
        <time>2023-11-13T14:35:19Z</time>
      </trkpt>
    </trkseg>
  </trk>
</gpx>